FW4770 Weather Reports


Display with metric or nautical units.
time (UTC)temp
F
wind
direction
speed
MPH
gust
MPH
rain 1hr
in
rain 24hr
in
rain mn
in
humidity
%
barometer
mb
20260506220513 45 321 6.0 11.0 0.00 0.00 0.00 55 1016.2
20260506220418 45 320 4.0 11.0 0.00 0.00 0.00 54 1016.2
20260506220306 45 296 5.0 11.0 0.00 0.00 0.00 53 1016.2
20260506220210 45 360 5.0 11.0 0.00 0.00 0.00 54 1016.2
20260506220112 45 306 4.0 11.0 0.00 0.00 0.00 56 1016.2
20260506220016 45 32 6.0 11.0 0.00 0.00 0.00 54 1016.2
20260506215940 45 15 8.0 11.0 0.00 0.00 0.00 54 1016.2
20260506215824 44 344 6.0 11.0 0.00 0.00 0.00 55 1016.3
20260506215711 44 26 4.0 10.0 0.00 0.00 0.00 56 1016.2
20260506215617 44 355 5.0 10.0 0.00 0.00 0.00 54 1016.3
20260506215521 44 348 5.0 10.0 0.00 0.00 0.00 54 1016.2
20260506215427 44 13 5.0 10.0 0.00 0.00 0.00 53 1016.3
20260506215351 44 5 7.0 10.0 0.00 0.00 0.00 54 1016.2
20260506215206 44 355 6.0 10.0 0.00 0.00 0.00 54 1016.2
20260506215114 44 349 5.0 10.0 0.00 0.00 0.00 55 1016.3
20260506215018 44 286 6.0 10.0 0.00 0.00 0.00 54 1016.3
20260506214922 44 25 5.0 11.0 0.00 0.00 0.00 55 1016.3
20260506214807 44 342 4.0 13.0 0.00 0.00 0.00 55 1016.2
20260506214732 44 315 4.0 13.0 0.00 0.00 0.00 55 1016.3
20260506214607 44 328 5.0 13.0 0.00 0.00 0.00 55 1016.2
20260506214515 44 287 6.0 13.0 0.00 0.00 0.00 55 1016.2
20260506214419 44 318 6.0 13.0 0.00 0.00 0.00 53 1016.2
20260506214323 44 360 7.0 13.0 0.00 0.00 0.00 54 1016.3
20260506214228 44 317 7.0 13.0 0.00 0.00 0.00 55 1016.3
20260506214130 44 306 7.0 13.0 0.00 0.00 0.00 54 1016.3
20260506214007 44 336 8.0 13.0 0.00 0.00 0.00 55 1016.3
20260506213932 44 340 9.0 13.0 0.00 0.00 0.00 54 1016.3
20260506213820 44 321 9.0 13.0 0.00 0.00 0.00 55 1016.2
20260506213705 44 355 9.0 13.0 0.00 0.00 0.00 54 1016.3
20260506213609 44 17 7.0 13.0 0.00 0.00 0.00 54 1016.4
20260506213533 44 349 3.0 13.0 0.00 0.00 0.00 55 1016.3
20260506213413 44 281 4.0 13.0 0.00 0.00 0.00 55 1016.3
20260506213318 44 346 8.0 13.0 0.00 0.00 0.00 54 1016.3
20260506213206 44 327 9.0 13.0 0.00 0.00 0.00 54 1016.3
20260506213129 44 290 7.0 12.0 0.00 0.00 0.00 55 1016.3
20260506213005 44 308 5.0 12.0 0.00 0.00 0.00 55 1016.3
20260506212930 44 279 5.0 13.0 0.00 0.00 0.00 55 1016.3
20260506212807 44 325 5.0 13.0 0.00 0.00 0.00 56 1016.3
20260506212711 44 304 5.0 13.0 0.00 0.00 0.00 56 1016.4
20260506212616 44 283 5.0 13.0 0.00 0.00 0.00 57 1016.4
20260506212524 44 355 4.0 13.0 0.00 0.00 0.00 57 1016.4
20260506212427 44 292 5.0 13.0 0.00 0.00 0.00 56 1016.4
20260506212351 44 323 5.0 13.0 0.00 0.00 0.00 56 1016.4
20260506212206 44 355 8.0 13.0 0.00 0.00 0.00 57 1016.4
20260506212110 44 292 9.0 13.0 0.00 0.00 0.00 55 1016.4
20260506212034 44 284 8.0 13.0 0.00 0.00 0.00 55 1016.3
20260506211917 44 325 7.0 13.0 0.00 0.00 0.00 57 1016.4
20260506211824 44 306 8.0 13.0 0.00 0.00 0.00 55 1016.4
20260506211728 44 315 8.0 13.0 0.00 0.00 0.00 55 1016.4
20260506211606 44 297 8.0 13.0 0.00 0.00 0.00 53 1016.4
20260506211528 44 306 8.0 13.0 0.00 0.00 0.00 53 1016.4
20260506211451 44 317 9.0 13.0 0.00 0.00 0.00 54 1016.4
20260506211307 44 342 9.0 13.0 0.00 0.00 0.00 55 1016.5
20260506211211 44 342 8.0 12.0 0.00 0.00 0.00 54 1016.4
20260506211139 44 342 8.0 12.0 0.00 0.00 0.00 54 1016.5
20260506211021 44 328 6.0 12.0 0.00 0.00 0.00 55 1016.4
20260506210926 44 299 5.0 12.0 0.00 0.00 0.00 57 1016.4
20260506210809 44 309 8.0 12.0 0.00 0.00 0.00 54 1016.4
20260506210713 44 314 9.0 12.0 0.00 0.00 0.00 55 1016.5
20260506210617 44 317 9.0 12.0 0.00 0.00 0.00 55 1016.4
20260506210505 44 300 8.0 14.0 0.00 0.00 0.00 56 1016.5
20260506210429 44 301 7.0 14.0 0.00 0.00 0.00 57 1016.4
20260506210306 44 286 6.0 14.0 0.00 0.00 0.00 56 1016.6
20260506210211 44 307 5.0 14.0 0.00 0.00 0.00 56 1016.6
20260506210114 44 333 7.0 14.0 0.00 0.00 0.00 57 1016.6
20260506210019 44 327 9.0 15.0 0.00 0.00 0.00 56 1016.6
20260506205923 44 294 8.0 15.0 0.00 0.00 0.00 55 1016.6
20260506205828 44 300 8.0 15.0 0.00 0.00 0.00 56 1016.6
20260506205705 44 287 10.0 15.0 0.00 0.00 0.00 55 1016.6
20260506205628 44 297 11.0 15.0 0.00 0.00 0.00 56 1016.7
20260506205505 44 313 8.0 15.0 0.00 0.00 0.00 56 1016.6
20260506205408 44 294 6.0 15.0 0.00 0.00 0.00 55 1016.6
20260506205311 44 332 7.0 15.0 0.00 0.00 0.00 55 1016.7
20260506205219 44 336 8.0 15.0 0.00 0.00 0.00 54 1016.7
20260506205122 44 321 6.0 14.0 0.00 0.00 0.00 54 1016.6
20260506205026 44 308 6.0 17.0 0.00 0.00 0.00 55 1016.7
20260506204908 44 299 7.0 17.0 0.00 0.00 0.00 54 1016.7
20260506204812 44 296 9.0 17.0 0.00 0.00 0.00 54 1016.7
20260506204736 44 355 8.0 17.0 0.00 0.00 0.00 54 1016.7
20260506204619 44 320 6.0 17.0 0.00 0.00 0.00 55 1016.6
20260506204528 44 300 7.0 17.0 0.00 0.00 0.00 55 1016.7
20260506204405 44 340 10.0 17.0 0.00 0.00 0.00 54 1016.7
20260506204309 44 360 11.0 17.0 0.00 0.00 0.00 54 1016.8
20260506204232 44 336 10.0 17.0 0.00 0.00 0.00 55 1016.7
20260506204134 44 339 9.0 15.0 0.00 0.00 0.00 57 1016.8
20260506204016 44 308 9.0 15.0 0.00 0.00 0.00 58 1016.8
20260506203919 44 301 9.0 18.0 0.00 0.00 0.00 57 1016.7
20260506203827 44 301 7.0 18.0 0.00 0.00 0.00 56 1016.8
20260506203711 44 346 4.0 18.0 0.00 0.00 0.00 57 1016.7
20260506203612 44 327 4.0 18.0 0.00 0.00 0.00 56 1016.6
20260506203516 44 355 6.0 18.0 0.00 0.00 0.00 56 1016.7
20260506203418 44 355 8.0 18.0 0.00 0.00 0.00 54 1016.7
20260506203322 44 315 10.0 18.0 0.00 0.00 0.00 54 1016.7
20260506203209 44 299 11.0 18.0 0.00 0.00 0.00 53 1016.7
20260506203132 44 302 11.0 18.0 0.00 0.00 0.00 54 1016.7
20260506203007 44 317 9.0 16.0 0.00 0.00 0.00 55 1016.7
20260506202930 44 326 8.0 16.0 0.00 0.00 0.00 56 1016.7
20260506202812 44 331 7.0 14.0 0.00 0.00 0.00 56 1016.7
20260506202714 44 338 8.0 14.0 0.00 0.00 0.00 55 1016.7
20260506202637 44 343 8.0 14.0 0.00 0.00 0.00 55 1016.7
20260506202520 44 5 7.0 14.0 0.00 0.00 0.00 56 1016.7
20260506202407 44 11 6.0 14.0 0.00 0.00 0.00 56 1016.7
20260506202330 44 355 6.0 14.0 0.00 0.00 0.00 56 1016.6
20260506202213 44 305 6.0 14.0 0.00 0.00 0.00 56 1016.6
20260506202115 44 299 7.0 14.0 0.00 0.00 0.00 55 1016.6
20260506202018 44 43 8.0 14.0 0.00 0.00 0.00 54 1016.7
20260506201942 44 313 6.0 12.0 0.00 0.00 0.00 54 1016.7
20260506201808 44 355 7.0 15.0 0.00 0.00 0.00 54 1016.7
20260506201731 44 333 9.0 15.0 0.00 0.00 0.00 55 1016.7
20260506201607 44 13 10.0 15.0 0.00 0.00 0.00 54 1016.7
20260506201510 44 344 8.0 15.0 0.00 0.00 0.00 54 1016.7
20260506201413 44 309 7.0 15.0 0.00 0.00 0.00 54 1016.6
20260506201316 44 336 7.0 15.0 0.00 0.00 0.00 55 1016.6
20260506201220 44 345 8.0 15.0 0.00 0.00 0.00 53 1016.7
20260506201106 44 10 9.0 15.0 0.00 0.00 0.00 53 1016.7
20260506201009 44 342 8.0 15.0 0.00 0.00 0.00 55 1016.7
20260506200912 44 5 7.0 12.0 0.00 0.00 0.00 55 1016.6
20260506200815 44 40 7.0 12.0 0.00 0.00 0.00 54 1016.7
20260506200716 44 347 7.0 12.0 0.00 0.00 0.00 55 1016.7
20260506200619 44 5 7.0 12.0 0.00 0.00 0.00 55 1016.6
20260506200507 44 323 9.0 12.0 0.00 0.00 0.00 56 1016.7
20260506200409 44 335 8.0 12.0 0.00 0.00 0.00 55 1016.7
20260506200313 44 36 7.0 11.0 0.00 0.00 0.00 55 1016.7
20260506200236 44 360 7.0 11.0 0.00 0.00 0.00 56 1016.7
20260506200118 44 360 6.0 11.0 0.00 0.00 0.00 56 1016.7
20260506200021 44 30 5.0 14.0 0.00 0.00 0.00 58 1016.7
20260506195908 44 26 7.0 14.0 0.00 0.00 0.00 55 1016.7
20260506195831 44 326 6.0 14.0 0.00 0.00 0.00 55 1016.7
20260506195707 44 334 3.0 14.0 0.00 0.00 0.00 58 1016.6
20260506195609 44 350 3.0 14.0 0.00 0.00 0.00 57 1016.7
20260506195512 44 314 4.0 14.0 0.00 0.00 0.00 57 1016.7
20260506195417 44 306 7.0 14.0 0.00 0.00 0.00 56 1016.7
20260506195320 44 322 9.0 14.0 0.00 0.00 0.00 54 1016.7
20260506195208 44 305 8.0 14.0 0.00 0.00 0.00 57 1016.7
20260506195132 44 315 6.0 11.0 0.00 0.00 0.00 55 1016.7
20260506195014 44 302 5.0 11.0 0.00 0.00 0.00 56 1016.7
20260506194916 44 300 7.0 11.0 0.00 0.00 0.00 56 1016.7
20260506194820 44 288 8.0 11.0 0.00 0.00 0.00 55 1016.7
20260506194722 44 355 7.0 11.0 0.00 0.00 0.00 55 1016.8
20260506194629 44 355 5.0 14.0 0.00 0.00 0.00 56 1016.7
20260506194504 44 334 6.0 14.0 0.00 0.00 0.00 58 1016.8
20260506194407 44 22 5.0 14.0 0.00 0.00 0.00 56 1016.8
20260506194332 44 304 6.0 14.0 0.00 0.00 0.00 57 1016.8
20260506194234 43 315 5.0 14.0 0.00 0.00 0.00 56 1016.7
20260506194136 43 340 4.0 14.0 0.00 0.00 0.00 56 1016.8
20260506194018 43 38 6.0 14.0 0.00 0.00 0.00 56 1016.7
20260506193941 43 36 7.0 14.0 0.00 0.00 0.00 55 1016.8
20260506193807 43 5 8.0 14.0 0.00 0.00 0.00 56 1016.8
20260506193711 43 43 9.0 14.0 0.00 0.00 0.00 54 1016.9
20260506193609 43 5 10.0 14.0 0.00 0.00 0.00 55 1016.9
20260506193513 43 31 9.0 14.0 0.00 0.00 0.00 55 1016.9
20260506193437 43 5 6.0 13.0 0.00 0.00 0.00 55 1016.8
20260506193318 43 360 3.0 13.0 0.00 0.00 0.00 56 1016.8
20260506193205 43 360 7.0 13.0 0.00 0.00 0.00 56 1016.9
20260506193109 43 300 8.0 14.0 0.00 0.00 0.00 58 1016.9
20260506193011 43 323 6.0 15.0 0.00 0.00 0.00 56 1016.9
20260506192914 43 355 7.0 15.0 0.00 0.00 0.00 56 1017.0
20260506192818 43 5 8.0 15.0 0.00 0.00 0.00 57 1016.9
20260506192740 43 315 8.0 15.0 0.00 0.00 0.00 56 1016.9
20260506192641 43 281 5.0 15.0 0.00 0.00 0.00 55 1016.9
20260506192508 43 286 7.0 15.0 0.00 0.00 0.00 55 1016.9
20260506192431 43 319 10.0 15.0 0.00 0.00 0.00 55 1017.0
20260506192312 43 355 11.0 15.0 0.00 0.00 0.00 57 1016.9
20260506192214 43 331 10.0 16.0 0.00 0.00 0.00 57 1016.9
20260506192118 43 349 10.0 16.0 0.00 0.00 0.00 57 1016.9
20260506192022 43 34 10.0 16.0 0.00 0.00 0.00 56 1017.0
20260506191925 43 35 8.0 16.0 0.00 0.00 0.00 57 1016.9
20260506191832 43 360 7.0 16.0 0.00 0.00 0.00 57 1017.0
20260506191707 43 298 9.0 16.0 0.00 0.00 0.00 57 1016.9
20260506191631 43 302 9.0 16.0 0.00 0.00 0.00 55 1016.9
20260506191507 43 311 9.0 17.0 0.00 0.00 0.00 55 1016.9
20260506191410 43 302 11.0 17.0 0.00 0.00 0.00 55 1017.0
20260506191313 43 336 10.0 17.0 0.00 0.00 0.00 55 1017.0
20260506191219 43 329 8.0 17.0 0.00 0.00 0.00 57 1017.0
20260506191123 43 333 6.0 17.0 0.00 0.00 0.00 56 1017.0
20260506191027 43 329 9.0 17.0 0.00 0.00 0.00 56 1017.0
20260506190910 43 338 13.0 17.0 0.00 0.00 0.00 55 1017.0
20260506190831 43 360 12.0 17.0 0.00 0.00 0.00 56 1016.9
20260506190707 43 344 10.0 17.0 0.00 0.00 0.00 56 1017.1
20260506190610 43 306 8.0 17.0 0.00 0.00 0.00 56 1017.1
20260506190518 43 360 7.0 14.0 0.00 0.00 0.00 57 1017.0
20260506190443 43 294 8.0 14.0 0.00 0.00 0.00 57 1017.0
20260506190327 43 5 7.0 14.0 0.00 0.00 0.00 57 1017.0
20260506190230 43 346 7.0 14.0 0.00 0.00 0.00 57 1017.0
20260506190133 43 330 6.0 14.0 0.00 0.00 0.00 58 1017.1
20260506190014 43 17 6.0 14.0 0.00 0.00 0.00 58 1017.1
20260506185917 43 360 8.0 14.0 0.00 0.00 0.00 56 1017.0
20260506185819 43 355 11.0 14.0 0.00 0.00 0.00 57 1017.1
20260506185706 43 327 12.0 14.0 0.00 0.00 0.00 57 1017.0
20260506185608 43 319 11.0 14.0 0.00 0.00 0.00 58 1017.0
20260506185511 43 296 9.0 13.0 0.00 0.00 0.00 58 1016.9
20260506185415 43 306 8.0 13.0 0.00 0.00 0.00 57 1017.1
20260506185318 43 325 8.0 13.0 0.00 0.00 0.00 58 1017.1
20260506185240 43 338 7.0 12.0 0.00 0.00 0.00 56 1017.1
20260506185108 43 355 6.0 12.0 0.00 0.00 0.00 57 1017.1
20260506185030 43 350 6.0 12.0 0.00 0.00 0.00 57 1017.1
20260506184907 42 345 9.0 13.0 0.00 0.00 0.00 57 1017.1
20260506184810 42 346 8.0 13.0 0.00 0.00 0.00 57 1017.1
20260506184715 42 26 7.0 13.0 0.00 0.00 0.00 58 1017.0
20260506184617 42 52 6.0 14.0 0.00 0.00 0.00 58 1017.1
20260506184520 42 313 5.0 14.0 0.00 0.00 0.00 59 1017.0
20260506184408 42 360 6.0 15.0 0.00 0.00 0.00 57 1017.0
20260506184312 42 355 8.0 15.0 0.00 0.00 0.00 56 1017.1
20260506184211 42 346 10.0 16.0 0.00 0.00 0.00 57 1017.1
20260506184114 42 360 9.0 16.0 0.00 0.00 0.00 57 1017.0
20260506184017 42 355 9.0 16.0 0.00 0.00 0.00 57 1017.1
20260506183920 42 336 10.0 16.0 0.00 0.00 0.00 57 1017.1
20260506183808 42 345 10.0 16.0 0.00 0.00 0.00 57 1017.1
20260506183711 42 36 10.0 16.0 0.00 0.00 0.00 55 1017.1
20260506183614 42 355 12.0 16.0 0.00 0.00 0.00 56 1017.1
20260506183513 42 344 11.0 16.0 0.00 0.00 0.00 57 1017.1
20260506183416 42 344 9.0 15.0 0.00 0.00 0.00 58 1017.1
20260506183321 42 27 7.0 13.0 0.00 0.00 0.00 57 1017.2
20260506183207 42 5 8.0 13.0 0.00 0.00 0.00 57 1017.1
20260506183110 42 40 8.0 13.0 0.00 0.00 0.00 57 1017.1
20260506183013 42 30 7.0 15.0 0.00 0.00 0.00 58 1017.1
20260506182917 42 9 9.0 15.0 0.00 0.00 0.00 58 1017.1
20260506182819 42 36 9.0 15.0 0.00 0.00 0.00 58 1017.1
20260506182722 42 41 7.0 15.0 0.00 0.00 0.00 59 1017.1
20260506182627 42 355 8.0 15.0 0.00 0.00 0.00 58 1017.2
20260506182551 42 344 8.0 15.0 0.00 0.00 0.00 58 1017.2
20260506182406 42 5 10.0 17.0 0.00 0.00 0.00 58 1017.2
20260506182329 42 336 11.0 17.0 0.00 0.00 0.00 58 1017.1
20260506182205 42 308 10.0 17.0 0.00 0.00 0.00 58 1017.1
20260506182110 42 295 10.0 17.0 0.00 0.00 0.00 58 1017.1
20260506182017 42 315 10.0 17.0 0.00 0.00 0.00 57 1017.1
20260506181917 42 313 10.0 17.0 0.00 0.00 0.00 57 1017.1
20260506181819 42 299 10.0 17.0 0.00 0.00 0.00 57 1017.2
20260506181717 42 337 10.0 17.0 0.00 0.00 0.00 57 1017.2
20260506181617 42 344 10.0 17.0 0.00 0.00 0.00 57 1017.2
20260506181517 42 328 9.0 16.0 0.00 0.00 0.00 58 1017.2
20260506181421 42 331 9.0 16.0 0.00 0.00 0.00 57 1017.2
20260506181327 42 296 8.0 16.0 0.00 0.00 0.00 58 1017.2
20260506181208 42 344 7.0 14.0 0.00 0.00 0.00 59 1017.2
20260506181111 42 30 7.0 14.0 0.00 0.00 0.00 58 1017.2
20260506181034 42 298 5.0 16.0 0.00 0.00 0.00 58 1017.1
20260506180916 42 317 5.0 16.0 0.00 0.00 0.00 58 1017.1
20260506180840 42 55 6.0 16.0 0.00 0.00 0.00 58 1017.1
20260506180722 42 351 8.0 16.0 0.00 0.00 0.00 58 1017.1
20260506180646 42 12 9.0 16.0 0.00 0.00 0.00 58 1017.2
20260506180554 42 355 10.0 16.0 0.00 0.00 0.00 57 1017.3
20260506180406 42 347 10.0 16.0 0.00 0.00 0.00 58 1017.3
20260506180328 42 340 10.0 16.0 0.00 0.00 0.00 58 1017.2
20260506180252 42 342 11.0 16.0 0.00 0.00 0.00 58 1017.4
20260506180108 42 9 9.0 15.0 0.00 0.00 0.00 58 1017.3
20260506180031 42 23 9.0 15.0 0.00 0.00 0.00 57 1017.2
20260506175907 42 39 9.0 15.0 0.00 0.00 0.00 58 1017.2
20260506175814 42 34 8.0 15.0 0.00 0.00 0.00 59 1017.3
20260506175717 42 5 8.0 14.0 0.00 0.00 0.00 59 1017.2
20260506175642 42 336 9.0 14.0 0.00 0.00 0.00 58 1017.3
20260506175506 42 355 9.0 14.0 0.00 0.00 0.00 58 1017.3
20260506175409 42 313 9.0 16.0 0.00 0.00 0.00 57 1017.2
20260506175311 42 5 9.0 16.0 0.00 0.00 0.00 57 1017.3
20260506175216 42 355 8.0 16.0 0.00 0.00 0.00 56 1017.2
20260506175137 42 300 8.0 16.0 0.00 0.00 0.00 57 1017.3
20260506175006 42 340 9.0 16.0 0.00 0.00 0.00 58 1017.2
20260506174812 42 355 9.0 16.0 0.00 0.00 0.00 58 1017.3
20260506174716 42 310 10.0 16.0 0.00 0.00 0.00 58 1017.3
20260506174641 42 9 10.0 16.0 0.00 0.00 0.00 57 1017.2
20260506174526 42 17 8.0 13.0 0.00 0.00 0.00 57 1017.2
20260506174426 42 312 9.0 13.0 0.00 0.00 0.00 57 1017.2
20260506174327 42 317 9.0 13.0 0.00 0.00 0.00 57 1017.2
20260506174228 42 317 9.0 13.0 0.00 0.00 0.00 58 1017.2
20260506174153 42 326 8.0 18.0 0.00 0.00 0.00 58 1017.3
20260506174009 42 355 9.0 18.0 0.00 0.00 0.00 57 1017.3
20260506173911 42 338 6.0 18.0 0.00 0.00 0.00 59 1017.2
20260506173820 42 306 5.0 18.0 0.00 0.00 0.00 58 1017.3
20260506173725 42 355 5.0 18.0 0.00 0.00 0.00 57 1017.2
20260506173629 42 60 7.0 18.0 0.00 0.00 0.00 58 1017.3
20260506173532 42 18 8.0 18.0 0.00 0.00 0.00 57 1017.2
20260506173406 42 360 11.0 18.0 0.00 0.00 0.00 58 1017.4
20260506173308 42 329 10.0 18.0 0.00 0.00 0.00 59 1017.3
20260506173212 42 14 7.0 13.0 0.00 0.00 0.00 59 1017.3
20260506173119 41 303 7.0 12.0 0.00 0.00 0.00 58 1017.3
20260506173018 41 341 8.0 12.0 0.00 0.00 0.00 59 1017.2
20260506172922 41 328 8.0 12.0 0.00 0.00 0.00 58 1017.2
20260506172823 41 326 8.0 15.0 0.00 0.00 0.00 58 1017.2
20260506172723 41 313 8.0 16.0 0.00 0.00 0.00 58 1017.3
20260506172625 42 317 9.0 16.0 0.00 0.00 0.00 58 1017.2
20260506172530 41 319 9.0 16.0 0.00 0.00 0.00 58 1017.3
20260506172410 41 355 7.0 16.0 0.00 0.00 0.00 58 1017.3
20260506172312 42 306 6.0 16.0 0.00 0.00 0.00 58 1017.3
20260506172235 42 319 8.0 16.0 0.00 0.00 0.00 58 1017.3
20260506172118 42 339 11.0 16.0 0.00 0.00 0.00 57 1017.3
20260506172039 42 355 12.0 16.0 0.00 0.00 0.00 57 1017.4
20260506171920 42 348 11.0 16.0 0.00 0.00 0.00 57 1017.4
20260506171805 42 344 10.0 16.0 0.00 0.00 0.00 58 1017.3
20260506171730 42 15 8.0 16.0 0.00 0.00 0.00 58 1017.4
20260506171633 42 330 7.0 14.0 0.00 0.00 0.00 58 1017.3
20260506171508 42 9 7.0 14.0 0.00 0.00 0.00 57 1017.3
20260506171410 42 340 9.0 14.0 0.00 0.00 0.00 58 1017.4
20260506171315 42 328 9.0 14.0 0.00 0.00 0.00 59 1017.4
20260506171219 42 320 8.0 13.0 0.00 0.00 0.00 59 1017.4
20260506171108 42 11 6.0 13.0 0.00 0.00 0.00 59 1017.4
20260506171013 42 355 6.0 13.0 0.00 0.00 0.00 59 1017.4
20260506170937 42 321 5.0 13.0 0.00 0.00 0.00 59 1017.4
20260506170841 42 43 6.0 13.0 0.00 0.00 0.00 59 1017.3
20260506170724 42 19 6.0 14.0 0.00 0.00 0.00 60 1017.4
20260506170629 42 310 7.0 14.0 0.00 0.00 0.00 59 1017.4
20260506170531 42 336 9.0 14.0 0.00 0.00 0.00 59 1017.5
20260506170414 42 48 10.0 14.0 0.00 0.00 0.00 57 1017.4
20260506170320 42 360 9.0 14.0 0.00 0.00 0.00 58 1017.4
20260506170223 42 355 9.0 14.0 0.00 0.00 0.00 58 1017.6
20260506170108 42 31 9.0 14.0 0.00 0.00 0.00 59 1017.4
20260506170011 42 344 8.0 14.0 0.00 0.00 0.00 59 1017.4
20260506165934 42 18 9.0 14.0 0.00 0.00 0.00 58 1017.5
20260506165838 42 24 8.0 12.0 0.00 0.00 0.00 58 1017.4
20260506165720 42 355 8.0 12.0 0.00 0.00 0.00 58 1017.4
20260506165609 42 15 8.0 12.0 0.00 0.00 0.00 59 1017.4
20260506165512 42 17 7.0 12.0 0.00 0.00 0.00 59 1017.5
20260506165416 42 14 7.0 12.0 0.00 0.00 0.00 60 1017.4
20260506165320 42 39 5.0 12.0 0.00 0.00 0.00 59 1017.5
20260506165245 42 325 7.0 12.0 0.00 0.00 0.00 59 1017.4
20260506165127 42 319 8.0 12.0 0.00 0.00 0.00 58 1017.5
20260506165012 42 345 7.0 13.0 0.00 0.00 0.00 60 1017.5
20260506164936 41 311 6.0 14.0 0.00 0.00 0.00 59 1017.6
20260506164839 41 301 6.0 14.0 0.00 0.00 0.00 60 1017.6
20260506164742 41 351 6.0 14.0 0.00 0.00 0.00 60 1017.6
20260506164606 41 5 6.0 14.0 0.00 0.00 0.00 59 1017.5
20260506164530 41 21 7.0 14.0 0.00 0.00 0.00 59 1017.6
20260506164407 41 49 6.0 14.0 0.00 0.00 0.00 60 1017.7
20260506164310 41 17 7.0 14.0 0.00 0.00 0.00 59 1017.6
20260506164215 41 53 9.0 14.0 0.00 0.00 0.00 59 1017.6
20260506164114 41 360 8.0 14.0 0.00 0.00 0.00 59 1017.5
20260506164034 41 355 8.0 14.0 0.00 0.00 0.00 59 1017.5
20260506163909 41 10 8.0 13.0 0.00 0.00 0.00 59 1017.5
20260506163811 41 5 8.0 13.0 0.00 0.00 0.00 59 1017.5
20260506163732 41 33 7.0 13.0 0.00 0.00 0.00 59 1017.6
20260506163613 41 19 7.0 15.0 0.00 0.00 0.00 59 1017.6
20260506163518 41 18 8.0 15.0 0.00 0.00 0.00 58 1017.6
20260506163419 41 32 8.0 15.0 0.00 0.00 0.00 58 1017.6
20260506163321 41 30 9.0 15.0 0.00 0.00 0.00 59 1017.5
20260506163222 41 13 9.0 15.0 0.00 0.00 0.00 59 1017.5
20260506163142 41 19 8.0 15.0 0.00 0.00 0.00 59 1017.5
20260506163023 41 342 7.0 15.0 0.00 0.00 0.00 58 1017.5
20260506162908 41 344 10.0 15.0 0.00 0.00 0.00 59 1017.5
20260506162829 41 15 9.0 15.0 0.00 0.00 0.00 60 1017.5
20260506162730 41 360 8.0 15.0 0.00 0.00 0.00 59 1017.5
20260506162610 41 12 9.0 15.0 0.00 0.00 0.00 59 1017.4
20260506162531 41 355 11.0 18.0 0.00 0.00 0.00 59 1017.5
20260506162431 41 355 10.0 18.0 0.00 0.00 0.00 59 1017.5
20260506162331 41 337 7.0 18.0 0.00 0.00 0.00 60 1017.5
20260506162215 41 328 8.0 18.0 0.00 0.00 0.00 60 1017.4
20260506162139 41 309 8.0 18.0 0.00 0.00 0.00 60 1017.4
20260506162006 41 19 5.0 18.0 0.00 0.00 0.00 62 1017.5
20260506161911 41 330 6.0 18.0 0.00 0.00 0.00 61 1017.4
20260506161815 41 350 10.0 18.0 0.00 0.00 0.00 60 1017.4
20260506161716 41 336 9.0 18.0 0.00 0.00 0.00 60 1017.4
20260506161621 41 342 8.0 15.0 0.00 0.00 0.00 60 1017.4
20260506161525 41 355 9.0 15.0 0.00 0.00 0.00 60 1017.4
20260506161411 41 311 9.0 15.0 0.00 0.00 0.00 61 1017.4
20260506161315 41 331 9.0 15.0 0.00 0.00 0.00 61 1017.3
20260506161221 41 318 8.0 13.0 0.00 0.00 0.00 60 1017.4
20260506161124 41 319 7.0 12.0 0.00 0.00 0.00 60 1017.4
20260506161008 41 331 7.0 11.0 0.00 0.00 0.00 60 1017.4
20260506160913 41 355 7.0 11.0 0.00 0.00 0.00 60 1017.4
20260506160838 41 19 7.0 11.0 0.00 0.00 0.00 60 1017.4
20260506160727 41 338 8.0 11.0 0.00 0.00 0.00 60 1017.4
20260506160629 41 349 8.0 11.0 0.00 0.00 0.00 60 1017.4
20260506160506 41 341 8.0 11.0 0.00 0.00 0.00 61 1017.4
20260506160411 41 5 7.0 11.0 0.00 0.00 0.00 61 1017.4
20260506160336 41 350 5.0 11.0 0.00 0.00 0.00 61 1017.4
20260506160218 41 355 6.0 13.0 0.00 0.00 0.00 61 1017.4
20260506160123 41 5 6.0 14.0 0.00 0.00 0.00 60 1017.4
20260506160027 41 323 5.0 14.0 0.00 0.00 0.00 61 1017.4
20260506155911 41 5 6.0 14.0 0.00 0.00 0.00 61 1017.4
20260506155814 40 14 5.0 14.0 0.00 0.00 0.00 61 1017.4
20260506155718 40 16 6.0 14.0 0.00 0.00 0.00 61 1017.4
20260506155623 40 5 7.0 14.0 0.00 0.00 0.00 61 1017.4
20260506155508 40 46 7.0 14.0 0.00 0.00 0.00 61 1017.4
20260506155416 40 336 7.0 14.0 0.00 0.00 0.00 60 1017.4
20260506155318 40 355 8.0 14.0 0.00 0.00 0.00 61 1017.4
20260506155223 40 360 7.0 14.0 0.00 0.00 0.00 61 1017.4
20260506155125 40 360 7.0 14.0 0.00 0.00 0.00 61 1017.4
20260506155025 40 5 6.0 14.0 0.00 0.00 0.00 61 1017.4
20260506154926 40 15 8.0 14.0 0.00 0.00 0.00 61 1017.4
20260506154810 40 27 9.0 14.0 0.00 0.00 0.00 60 1017.4
20260506154712 40 355 8.0 14.0 0.00 0.00 0.00 61 1017.4
20260506154632 40 11 5.0 14.0 0.00 0.00 0.00 61 1017.4
20260506154512 40 44 7.0 14.0 0.00 0.00 0.00 61 1017.4
20260506154414 40 19 8.0 14.0 0.00 0.00 0.00 61 1017.4
20260506154335 40 342 8.0 14.0 0.00 0.00 0.00 61 1017.4
20260506154209 40 355 6.0 13.0 0.00 0.00 0.00 61 1017.4
20260506154135 40 5 6.0 13.0 0.00 0.00 0.00 61 1017.4
20260506154009 40 360 7.0 13.0 0.00 0.00 0.00 61 1017.3
20260506153908 40 360 6.0 13.0 0.00 0.00 0.00 61 1017.4
20260506153810 40 26 6.0 13.0 0.00 0.00 0.00 61 1017.4
20260506153730 40 351 5.0 12.0 0.00 0.00 0.00 61 1017.4
20260506153611 40 36 7.0 12.0 0.00 0.00 0.00 61 1017.4
20260506153513 40 26 8.0 12.0 0.00 0.00 0.00 60 1017.4
20260506153418 40 331 8.0 12.0 0.00 0.00 0.00 60 1017.4
20260506153339 40 345 7.0 13.0 0.00 0.00 0.00 61 1017.3
20260506153219 40 340 7.0 13.0 0.00 0.00 0.00 61 1017.4
20260506153141 40 343 7.0 14.0 0.00 0.00 0.00 61 1017.3
20260506153040 40 308 7.0 14.0 0.00 0.00 0.00 61 1017.4
20260506152920 40 298 9.0 14.0 0.00 0.00 0.00 60 1017.4
20260506152822 40 30 9.0 14.0 0.00 0.00 0.00 60 1017.4
20260506152708 40 355 9.0 14.0 0.00 0.00 0.00 61 1017.3
20260506152609 40 336 10.0 14.0 0.00 0.00 0.00 60 1017.4
20260506152509 40 360 10.0 14.0 0.00 0.00 0.00 60 1017.4
20260506152411 40 5 9.0 14.0 0.00 0.00 0.00 60 1017.4
20260506152313 40 360 7.0 14.0 0.00 0.00 0.00 61 1017.4
20260506152215 40 315 7.0 13.0 0.00 0.00 0.00 62 1017.3
20260506152121 40 309 7.0 13.0 0.00 0.00 0.00 61 1017.3
20260506152047 40 328 7.0 13.0 0.00 0.00 0.00 62 1017.3
20260506151927 40 360 7.0 14.0 0.00 0.00 0.00 61 1017.3
20260506151808 40 320 8.0 14.0 0.00 0.00 0.00 60 1017.3
20260506151710 40 19 9.0 14.0 0.00 0.00 0.00 60 1017.2
20260506151612 40 350 10.0 14.0 0.00 0.00 0.00 60 1017.2
20260506151514 40 344 10.0 14.0 0.00 0.00 0.00 60 1017.3
20260506151420 40 355 10.0 15.0 0.00 0.00 0.00 60 1017.3
20260506151321 40 355 10.0 15.0 0.00 0.00 0.00 60 1017.3
20260506151223 40 360 9.0 15.0 0.00 0.00 0.00 60 1017.4
20260506151125 40 32 9.0 15.0 0.00 0.00 0.00 60 1017.3
20260506151025 40 355 8.0 15.0 0.00 0.00 0.00 61 1017.4
20260506150926 40 30 8.0 15.0 0.00 0.00 0.00 61 1017.4
20260506150812 40 12 10.0 15.0 0.00 0.00 0.00 61 1017.4
20260506150713 40 24 10.0 15.0 0.00 0.00 0.00 61 1017.4
20260506150635 40 35 9.0 15.0 0.00 0.00 0.00 61 1017.4
20260506150556 40 5 6.0 13.0 0.00 0.00 0.00 61 1017.4
20260506150408 40 355 8.0 13.0 0.00 0.00 0.00 61 1017.4
20260506150310 40 338 9.0 13.0 0.00 0.00 0.00 60 1017.5
20260506150211 40 30 9.0 13.0 0.00 0.00 0.00 61 1017.5
20260506150115 40 355 10.0 13.0 0.00 0.00 0.00 61 1017.4
20260506150017 40 339 9.0 14.0 0.00 0.00 0.00 61 1017.3
20260506145918 40 315 8.0 14.0 0.00 0.00 0.00 61 1017.4
20260506145820 40 333 6.0 14.0 0.00 0.00 0.00 62 1017.4
20260506145740 40 304 6.0 14.0 0.00 0.00 0.00 62 1017.3
20260506145621 40 338 7.0 14.0 0.00 0.00 0.00 62 1017.4
20260506145522 40 345 8.0 14.0 0.00 0.00 0.00 61 1017.3
20260506145444 40 325 10.0 14.0 0.00 0.00 0.00 61 1017.3
20260506145326 40 319 9.0 14.0 0.00 0.00 0.00 61 1017.3
20260506145227 40 304 9.0 14.0 0.00 0.00 0.00 62 1017.4
20260506145127 40 323 5.0 12.0 0.00 0.00 0.00 63 1017.4
20260506145010 40 355 4.0 15.0 0.00 0.00 0.00 63 1017.4
20260506144915 40 288 4.0 17.0 0.00 0.00 0.00 63 1017.4
20260506144819 40 315 5.0 17.0 0.00 0.00 0.00 63 1017.3
20260506144723 40 306 5.0 17.0 0.00 0.00 0.00 62 1017.4
20260506144608 39 337 8.0 17.0 0.00 0.00 0.00 61 1017.4
20260506144508 39 338 9.0 17.0 0.00 0.00 0.00 61 1017.2
20260506144409 39 341 9.0 17.0 0.00 0.00 0.00 61 1017.4
20260506144310 39 320 9.0 17.0 0.00 0.00 0.00 61 1017.4
20260506144231 39 341 10.0 17.0 0.00 0.00 0.00 61 1017.4
20260506144112 40 360 10.0 17.0 0.00 0.00 0.00 62 1017.4
20260506144017 39 355 8.0 16.0 0.00 0.00 0.00 62 1017.4
20260506143939 39 5 6.0 16.0 0.00 0.00 0.00 63 1017.3
20260506143840 39 360 7.0 16.0 0.00 0.00 0.00 62 1017.3
20260506143719 39 11 8.0 16.0 0.00 0.00 0.00 61 1017.4
20260506143621 39 355 11.0 16.0 0.00 0.00 0.00 61 1017.4
20260506143542 39 45 9.0 16.0 0.00 0.00 0.00 61 1017.4
20260506143423 40 34 7.0 14.0 0.00 0.00 0.00 62 1017.4
20260506143324 40 30 7.0 14.0 0.00 0.00 0.00 62 1017.3
20260506143209 40 321 8.0 14.0 0.00 0.00 0.00 62 1017.2
20260506143111 40 5 8.0 14.0 0.00 0.00 0.00 62 1017.2
20260506143013 40 348 8.0 14.0 0.00 0.00 0.00 62 1017.2
20260506142934 40 344 9.0 14.0 0.00 0.00 0.00 63 1017.3
20260506142837 40 5 7.0 12.0 0.00 0.00 0.00 63 1017.2
20260506142720 40 23 7.0 13.0 0.00 0.00 0.00 63 1017.2
20260506142624 40 322 6.0 13.0 0.00 0.00 0.00 63 1017.2
20260506142512 40 22 7.0 13.0 0.00 0.00 0.00 63 1017.2
20260506142438 40 13 7.0 13.0 0.00 0.00 0.00 63 1017.1
20260506142340 40 319 6.0 13.0 0.00 0.00 0.00 64 1017.1
20260506142223 40 360 4.0 13.0 0.00 0.00 0.00 64 1017.1
20260506142107 40 313 4.0 13.0 0.00 0.00 0.00 64 1017.1
20260506142011 40 295 7.0 13.0 0.00 0.00 0.00 63 1017.2
20260506141915 40 346 7.0 13.0 0.00 0.00 0.00 63 1017.2
20260506141823 40 350 7.0 13.0 0.00 0.00 0.00 63 1017.2
20260506141707 39 13 7.0 13.0 0.00 0.00 0.00 63 1017.1
20260506141613 39 336 8.0 13.0 0.00 0.00 0.00 62 1017.1
20260506141515 39 355 7.0 13.0 0.00 0.00 0.00 62 1017.2
20260506141436 39 11 9.0 13.0 0.00 0.00 0.00 63 1017.2
20260506141319 39 28 10.0 13.0 0.00 0.00 0.00 62 1017.2
20260506141240 39 350 9.0 13.0 0.00 0.00 0.00 63 1017.2
20260506141106 39 12 8.0 13.0 0.00 0.00 0.00 64 1017.2
20260506141010 39 29 8.0 13.0 0.00 0.00 0.00 63 1017.1
20260506140914 39 344 9.0 13.0 0.00 0.00 0.00 63 1017.1
20260506140815 39 355 8.0 13.0 0.00 0.00 0.00 64 1017.2
20260506140716 39 350 8.0 13.0 0.00 0.00 0.00 64 1017.2
20260506140606 39 327 6.0 11.0 0.00 0.00 0.00 64 1017.1
20260506140511 39 28 5.0 12.0 0.00 0.00 0.00 65 1017.2
20260506140415 39 22 6.0 12.0 0.00 0.00 0.00 65 1017.2
20260506140320 39 11 7.0 13.0 0.00 0.00 0.00 64 1017.2
20260506140223 39 5 7.0 13.0 0.00 0.00 0.00 65 1017.1
20260506140108 39 360 8.0 13.0 0.00 0.00 0.00 64 1017.2
20260506140014 39 355 8.0 15.0 0.00 0.00 0.00 65 1017.1
20260506135920 39 20 6.0 15.0 0.00 0.00 0.00 65 1017.2
20260506135825 39 23 6.0 15.0 0.00 0.00 0.00 64 1017.2
20260506135727 39 346 8.0 15.0 0.00 0.00 0.00 65 1017.1
20260506135610 38 5 7.0 15.0 0.00 0.00 0.00 65 1017.1
20260506135512 38 339 6.0 15.0 0.00 0.00 0.00 66 1017.1
20260506135420 38 360 7.0 15.0 0.00 0.00 0.00 65 1017.1
20260506135321 38 13 9.0 15.0 0.00 0.00 0.00 65 1017.1
20260506135224 38 32 10.0 15.0 0.00 0.00 0.00 65 1017.1
20260506135106 38 360 8.0 13.0 0.00 0.00 0.00 67 1017.1
20260506135011 38 5 7.0 13.0 0.00 0.00 0.00 67 1017.0
20260506134916 38 355 8.0 13.0 0.00 0.00 0.00 68 1017.0
20260506134805 38 23 9.0 13.0 0.00 0.00 0.00 68 1017.1
20260506134729 37 335 8.0 13.0 0.00 0.00 0.00 69 1017.1
20260506134607 37 5 6.0 11.0 0.00 0.00 0.00 69 1017.0
20260506134513 37 32 6.0 11.0 0.00 0.00 0.00 69 1017.1
20260506134418 37 16 7.0 11.0 0.00 0.00 0.00 69 1017.0
20260506134323 37 314 8.0 11.0 0.00 0.00 0.00 69 1017.0
20260506134209 37 360 8.0 11.0 0.00 0.00 0.00 70 1017.0
20260506134134 36 5 6.0 12.0 0.00 0.00 0.00 70 1016.9
20260506134013 36 355 5.0 12.0 0.00 0.00 0.00 70 1017.0
20260506133914 36 32 5.0 12.0 0.00 0.00 0.00 71 1017.0
20260506133834 36 24 5.0 12.0 0.00 0.00 0.00 71 1017.0
20260506133708 36 19 5.0 12.0 0.00 0.00 0.00 70 1016.9
20260506133610 35 355 6.0 12.0 0.00 0.00 0.00 70 1017.0
20260506133534 35 332 6.0 12.0 0.00 0.00 0.00 70 1017.0
20260506133408 35 26 8.0 12.0 0.00 0.00 0.00 70 1016.9
20260506133312 35 360 7.0 12.0 0.00 0.00 0.00 70 1016.9
20260506133235 35 329 7.0 12.0 0.00 0.00 0.00 71 1016.9
20260506133115 35 355 5.0 10.0 0.00 0.00 0.00 71 1016.9
20260506133017 35 313 5.0 10.0 0.00 0.00 0.00 71 1016.9
20260506132920 35 340 4.0 10.0 0.00 0.00 0.00 71 1016.9
20260506132827 35 32 3.0 10.0 0.00 0.00 0.00 71 1016.9
20260506132751 35 315 4.0 10.0 0.00 0.00 0.00 71 1017.0
20260506132606 35 34 5.0 10.0 0.00 0.00 0.00 70 1017.0
20260506132531 35 38 4.0 10.0 0.00 0.00 0.00 70 1016.9
20260506132407 35 360 6.0 10.0 0.00 0.00 0.00 70 1016.9
20260506132310 35 355 6.0 10.0 0.00 0.00 0.00 70 1016.9
20260506132217 35 355 4.0 9.0 0.00 0.00 0.00 70 1016.9
20260506132140 35 355 3.0 8.0 0.00 0.00 0.00 70 1016.8
20260506132022 35 5 3.0 8.0 0.00 0.00 0.00 71 1016.8
20260506131926 35 360 4.0 8.0 0.00 0.00 0.00 71 1016.8
20260506131808 35 332 4.0 8.0 0.00 0.00 0.00 71 1016.7
20260506131710 35 339 4.0 8.0 0.00 0.00 0.00 71 1016.7
20260506131613 35 355 4.0 8.0 0.00 0.00 0.00 71 1016.7
20260506131520 35 323 5.0 8.0 0.00 0.00 0.00 71 1016.7
20260506131424 35 9 5.0 8.0 0.00 0.00 0.00 71 1016.6
20260506131327 35 342 4.0 8.0 0.00 0.00 0.00 71 1016.7
20260506131209 35 355 4.0 6.0 0.00 0.00 0.00 71 1016.6
20260506131112 35 321 4.0 6.0 0.00 0.00 0.00 71 1016.6
20260506131015 35 5 4.0 5.0 0.00 0.00 0.00 71 1016.6
20260506130918 35 5 3.0 5.0 0.00 0.00 0.00 71 1016.6
20260506130805 35 350 3.0 5.0 0.00 0.00 0.00 72 1016.6
20260506130709 35 11 3.0 5.0 0.00 0.00 0.00 71 1016.5
20260506130632 35 11 3.0 5.0 0.00 0.00 0.00 72 1016.5
20260506130507 35 24 2.0 5.0 0.00 0.00 0.00 72 1016.5
20260506130431 35 33 2.0 5.0 0.00 0.00 0.00 71 1016.5
20260506130313 35 32 3.0 5.0 0.00 0.00 0.00 71 1016.5
20260506130220 35 29 4.0 5.0 0.00 0.00 0.00 71 1016.5
20260506130123 35 32 3.0 5.0 0.00 0.00 0.00 72 1016.5
20260506130027 35 11 2.0 6.0 0.00 0.00 0.00 72 1016.4
20260506125910 35 10 2.0 8.0 0.00 0.00 0.00 72 1016.4
20260506125813 35 11 3.0 8.0 0.00 0.00 0.00 72 1016.4
20260506125717 35 342 3.0 8.0 0.00 0.00 0.00 72 1016.4
20260506125619 34 5 3.0 9.0 0.00 0.00 0.00 72 1016.4
20260506125506 34 360 3.0 9.0 0.00 0.00 0.00 72 1016.4
20260506125408 34 350 4.0 9.0 0.00 0.00 0.00 73 1016.4
20260506125312 34 5 4.0 9.0 0.00 0.00 0.00 72 1016.3
20260506125213 34 5 5.0 9.0 0.00 0.00 0.00 72 1016.4
20260506125116 34 325 5.0 9.0 0.00 0.00 0.00 72 1016.3
20260506125019 34 311 3.0 9.0 0.00 0.00 0.00 72 1016.3
20260506124906 34 5 4.0 9.0 0.00 0.00 0.00 73 1016.3
20260506124829 34 348 4.0 9.0 0.00 0.00 0.00 73 1016.3
20260506124705 34 320 3.0 6.0 0.00 0.00 0.00 73 1016.3
20260506124608 34 355 2.0 5.0 0.00 0.00 0.00 73 1016.3
20260506124532 34 331 3.0 9.0 0.00 0.00 0.00 73 1016.2
20260506124407 34 325 3.0 9.0 0.00 0.00 0.00 73 1016.3
20260506124314 34 311 3.0 9.0 0.00 0.00 0.00 73 1016.2
20260506124218 34 309 3.0 9.0 0.00 0.00 0.00 73 1016.3
20260506124141 34 299 2.0 9.0 0.00 0.00 0.00 73 1016.2
20260506124023 34 298 2.0 9.0 0.00 0.00 0.00 73 1016.1
20260506123908 34 350 3.0 9.0 0.00 0.00 0.00 73 1016.2
20260506123811 34 348 4.0 9.0 0.00 0.00 0.00 73 1016.2
20260506123715 34 345 4.0 9.0 0.00 0.00 0.00 73 1016.2
20260506123642 34 338 4.0 8.0 0.00 0.00 0.00 73 1016.1
20260506123524 34 317 4.0 8.0 0.00 0.00 0.00 74 1016.1
20260506123428 34 306 4.0 8.0 0.00 0.00 0.00 74 1016.1
20260506123352 34 315 3.0 8.0 0.00 0.00 0.00 74 1016.1
20260506123208 34 337 4.0 8.0 0.00 0.00 0.00 73 1016.1
20260506123112 34 313 4.0 8.0 0.00 0.00 0.00 73 1016.1
20260506123016 34 321 3.0 8.0 0.00 0.00 0.00 74 1016.1
20260506122924 34 337 3.0 6.0 0.00 0.00 0.00 74 1016.1
20260506122828 34 355 4.0 6.0 0.00 0.00 0.00 74 1016.2
20260506122752 34 5 3.0 6.0 0.00 0.00 0.00 74 1016.1
20260506122608 33 344 2.0 9.0 0.00 0.00 0.00 74 1016.1
20260506122532 33 343 3.0 9.0 0.00 0.00 0.00 74 1016.2
20260506122407 33 343 3.0 9.0 0.00 0.00 0.00 74 1016.1
20260506122310 33 355 4.0 9.0 0.00 0.00 0.00 74 1016.1
20260506122238 33 339 4.0 9.0 0.00 0.00 0.00 74 1016.1
20260506122121 33 301 4.0 10.0 0.00 0.00 0.00 74 1016.1
20260506122005 33 5 4.0 10.0 0.00 0.00 0.00 74 1016.1
20260506121909 33 346 5.0 10.0 0.00 0.00 0.00 74 1016.0
20260506121814 33 308 5.0 10.0 0.00 0.00 0.00 74 1016.1
20260506121738 33 325 4.0 10.0 0.00 0.00 0.00 74 1016.1
20260506121606 33 304 4.0 10.0 0.00 0.00 0.00 74 1016.0
20260506121530 33 334 5.0 10.0 0.00 0.00 0.00 74 1016.0
20260506121407 33 341 5.0 10.0 0.00 0.00 0.00 74 1016.0
20260506121331 33 322 4.0 9.0 0.00 0.00 0.00 74 1016.0
20260506121215 33 319 4.0 8.0 0.00 0.00 0.00 74 1016.0
20260506121119 33 339 4.0 8.0 0.00 0.00 0.00 74 1016.0
20260506121023 33 355 4.0 8.0 0.00 0.00 0.00 74 1015.9
20260506120930 33 325 4.0 8.0 0.00 0.00 0.00 74 1015.9
20260506120807 33 334 5.0 8.0 0.00 0.00 0.00 74 1015.9
20260506120731 33 319 4.0 8.0 0.00 0.00 0.00 75 1015.9
20260506120608 33 302 4.0 8.0 0.00 0.00 0.00 75 1015.9
20260506120513 33 308 4.0 8.0 0.00 0.00 0.00 74 1015.9
20260506120418 33 348 3.0 8.0 0.00 0.00 0.00 74 1015.9
20260506120305 33 341 3.0 8.0 0.00 0.00 0.00 74 1015.9
20260506120209 33 310 4.0 8.0 0.00 0.00 0.00 74 1015.8
20260506120113 33 309 5.0 8.0 0.00 0.00 0.00 74 1015.9
20260506120017 33 341 4.0 8.0 0.00 0.00 0.00 74 1015.8
20260506115919 33 316 3.0 6.0 0.00 0.00 0.00 75 1015.8
20260506115844 33 319 3.0 6.0 0.00 0.00 0.00 75 1015.8
20260506115712 33 316 3.0 8.0 0.00 0.00 0.00 75 1015.8
20260506115615 33 334 3.0 8.0 0.00 0.00 0.00 75 1015.8
20260506115520 33 349 4.0 8.0 0.00 0.00 0.00 75 1015.9
20260506115405 33 9 4.0 8.0 0.00 0.00 0.00 75 1015.8
20260506115329 33 305 3.0 8.0 0.00 0.00 0.00 75 1015.8
20260506115206 33 348 3.0 8.0 0.00 0.00 0.00 75 1015.8
20260506115115 33 325 3.0 8.0 0.00 0.00 0.00 75 1015.8
20260506115018 33 350 4.0 8.0 0.00 0.00 0.00 75 1015.8
20260506114923 33 302 4.0 8.0 0.00 0.00 0.00 75 1015.8
20260506114826 33 5 4.0 8.0 0.00 0.00 0.00 75 1015.7
20260506114730 33 344 4.0 8.0 0.00 0.00 0.00 75 1015.7
20260506114613 33 346 3.0 8.0 0.00 0.00 0.00 75 1015.7
20260506114516 33 338 2.0 8.0 0.00 0.00 0.00 75 1015.7
20260506114406 33 335 3.0 8.0 0.00 0.00 0.00 75 1015.6
20260506114329 33 315 3.0 8.0 0.00 0.00 0.00 75 1015.6
20260506114206 33 314 3.0 8.0 0.00 0.00 0.00 74 1015.6
20260506114111 33 320 4.0 8.0 0.00 0.00 0.00 74 1015.6
20260506114036 33 323 4.0 8.0 0.00 0.00 0.00 74 1015.6
20260506113918 33 342 5.0 8.0 0.00 0.00 0.00 74 1015.6
20260506113807 33 338 4.0 7.0 0.00 0.00 0.00 74 1015.6
20260506113732 33 338 3.0 6.0 0.00 0.00 0.00 75 1015.5
20260506113608 33 355 3.0 6.0 0.00 0.00 0.00 74 1015.6
20260506113511 33 302 3.0 9.0 0.00 0.00 0.00 74 1015.6
20260506113417 33 295 3.0 9.0 0.00 0.00 0.00 74 1015.6
20260506113321 33 299 4.0 9.0 0.00 0.00 0.00 74 1015.6
20260506113227 33 338 4.0 9.0 0.00 0.00 0.00 74 1015.6
20260506113113 33 313 4.0 9.0 0.00 0.00 0.00 74 1015.5
20260506113019 33 315 3.0 9.0 0.00 0.00 0.00 74 1015.5
20260506112923 33 5 4.0 9.0 0.00 0.00 0.00 74 1015.5
20260506112808 33 311 5.0 9.0 0.00 0.00 0.00 74 1015.6
20260506112712 33 316 5.0 9.0 0.00 0.00 0.00 74 1015.7
20260506112637 33 327 5.0 9.0 0.00 0.00 0.00 74 1015.6
20260506112523 33 323 4.0 8.0 0.00 0.00 0.00 75 1015.7
20260506112408 33 303 3.0 5.0 0.00 0.00 0.00 75 1015.6
20260506112313 33 304 3.0 5.0 0.00 0.00 0.00 75 1015.6
20260506112218 33 306 2.0 5.0 0.00 0.00 0.00 75 1015.6
20260506112142 33 306 2.0 5.0 0.00 0.00 0.00 75 1015.5
20260506112005 33 313 2.0 5.0 0.00 0.00 0.00 75 1015.6
20260506111930 33 314 2.0 5.0 0.00 0.00 0.00 75 1015.6
20260506111818 33 314 2.0 5.0 0.00 0.00 0.00 75 1015.6
20260506111721 33 341 3.0 5.0 0.00 0.00 0.00 75 1015.7
20260506111605 33 305 3.0 5.0 0.00 0.00 0.00 75 1015.6
20260506111529 33 306 3.0 5.0 0.00 0.00 0.00 75 1015.6
20260506111406 33 360 3.0 5.0 0.00 0.00 0.00 75 1015.7
20260506111309 33 299 3.0 5.0 0.00 0.00 0.00 75 1015.7
20260506111238 33 329 4.0 5.0 0.00 0.00 0.00 75 1015.6
20260506111120 33 304 4.0 5.0 0.00 0.00 0.00 75 1015.6
20260506111023 33 314 3.0 5.0 0.00 0.00 0.00 75 1015.6
20260506110906 33 312 3.0 5.0 0.00 0.00 0.00 75 1015.7
20260506110811 33 298 3.0 5.0 0.00 0.00 0.00 75 1015.6
20260506110737 33 337 3.0 5.0 0.00 0.00 0.00 75 1015.6
20260506110640 33 326 3.0 5.0 0.00 0.00 0.00 75 1015.6
20260506110506 33 355 3.0 5.0 0.00 0.00 0.00 75 1015.6
20260506110410 33 336 3.0 5.0 0.00 0.00 0.00 75 1015.6
20260506110315 33 326 3.0 6.0 0.00 0.00 0.00 76 1015.5
20260506110220 33 336 3.0 6.0 0.00 0.00 0.00 75 1015.6
20260506110145 33 328 3.0 6.0 0.00 0.00 0.00 75 1015.6
20260506110048 33 306 3.0 6.0 0.00 0.00 0.00 75 1015.5
20260506105952 33 307 3.0 6.0 0.00 0.00 0.00 75 1015.5
20260506105807 33 327 3.0 6.0 0.00 0.00 0.00 75 1015.4
20260506105716 33 318 2.0 6.0 0.00 0.00 0.00 75 1015.5
20260506105641 33 343 2.0 6.0 0.00 0.00 0.00 75 1015.5
20260506105544 33 346 3.0 6.0 0.00 0.00 0.00 75 1015.5
20260506105429 33 320 3.0 6.0 0.00 0.00 0.00 75 1015.5
20260506105306 33 355 3.0 5.0 0.00 0.00 0.00 75 1015.5
20260506105210 33 9 2.0 5.0 0.00 0.00 0.00 75 1015.4
20260506105115 33 5 3.0 5.0 0.00 0.00 0.00 75 1015.5
20260506105005 33 321 3.0 5.0 0.00 0.00 0.00 75 1015.4
20260506104929 33 326 3.0 5.0 0.00 0.00 0.00 75 1015.5
20260506104830 33 325 2.0 5.0 0.00 0.00 0.00 75 1015.5
20260506104707 33 323 3.0 5.0 0.00 0.00 0.00 76 1015.5
20260506104613 33 350 3.0 5.0 0.00 0.00 0.00 76 1015.4
20260506104535 33 337 3.0 5.0 0.00 0.00 0.00 76 1015.4
20260506104419 33 336 3.0 5.0 0.00 0.00 0.00 76 1015.4
20260506104308 33 308 3.0 5.0 0.00 0.00 0.00 76 1015.3
20260506104213 33 304 3.0 6.0 0.00 0.00 0.00 76 1015.4
20260506104137 33 302 3.0 6.0 0.00 0.00 0.00 76 1015.3
20260506104019 33 312 3.0 6.0 0.00 0.00 0.00 76 1015.2
20260506103923 33 340 2.0 6.0 0.00 0.00 0.00 76 1015.2
20260506103829 33 318 2.0 6.0 0.00 0.00 0.00 76 1015.2
20260506103716 33 342 2.0 6.0 0.00 0.00 0.00 76 1015.2
20260506103620 33 326 3.0 6.0 0.00 0.00 0.00 76 1015.1
20260506103525 33 350 4.0 6.0 0.00 0.00 0.00 76 1015.1
20260506103448 33 333 3.0 6.0 0.00 0.00 0.00 76 1015.0
20260506103352 33 328 2.0 5.0 0.00 0.00 0.00 76 1015.1
20260506103208 33 326 3.0 5.0 0.00 0.00 0.00 75 1015.0
20260506103133 33 327 3.0 5.0 0.00 0.00 0.00 76 1015.0
20260506103015 33 343 3.0 5.0 0.00 0.00 0.00 76 1015.0
20260506102924 33 328 4.0 5.0 0.00 0.00 0.00 76 1015.0
20260506102829 33 340 3.0 6.0 0.00 0.00 0.00 76 1014.9
20260506102705 33 346 2.0 6.0 0.00 0.00 0.00 76 1015.0
20260506102609 33 5 2.0 6.0 0.00 0.00 0.00 76 1015.0
20260506102516 33 344 2.0 6.0 0.00 0.00 0.00 76 1015.0
20260506102405 33 11 3.0 8.0 0.00 0.00 0.00 76 1015.0
20260506102310 33 346 3.0 8.0 0.00 0.00 0.00 76 1014.9
20260506102214 33 345 3.0 8.0 0.00 0.00 0.00 76 1014.9
20260506102121 33 360 4.0 8.0 0.00 0.00 0.00 76 1014.9
20260506102025 33 325 4.0 8.0 0.00 0.00 0.00 76 1015.0
20260506101930 33 323 3.0 8.0 0.00 0.00 0.00 76 1015.0
20260506101814 33 324 3.0 8.0 0.00 0.00 0.00 77 1015.0
20260506101704 33 355 3.0 8.0 0.00 0.00 0.00 77 1015.0
20260506101629 33 305 4.0 8.0 0.00 0.00 0.00 77 1015.0
20260506101533 33 321 3.0 5.0 0.00 0.00 0.00 77 1015.0
20260506101417 33 308 3.0 5.0 0.00 0.00 0.00 77 1015.0
20260506101343 33 338 3.0 5.0 0.00 0.00 0.00 77 1015.0
20260506101207 32 317 3.0 5.0 0.00 0.00 0.00 77 1015.0
20260506101110 32 350 3.0 5.0 0.00 0.00 0.00 77 1015.0
20260506101019 33 335 3.0 5.0 0.00 0.00 0.00 77 1015.0
20260506100922 32 360 2.0 5.0 0.00 0.00 0.00 77 1015.1
20260506100807 32 5 2.0 5.0 0.00 0.00 0.00 77 1015.0
20260506100710 32 13 3.0 5.0 0.00 0.00 0.00 77 1015.1
20260506100615 32 5 4.0 5.0 0.00 0.00 0.00 77 1015.0
20260506100519 32 17 4.0 6.0 0.00 0.00 0.00 77 1015.1
20260506100427 32 9 3.0 6.0 0.00 0.00 0.00 77 1015.1
20260506100352 32 44 3.0 6.0 0.00 0.00 0.00 77 1015.1
20260506100207 32 56 3.0 6.0 0.00 0.00 0.00 78 1015.0
20260506100110 32 57 3.0 6.0 0.00 0.00 0.00 78 1015.1
20260506100015 32 36 2.0 6.0 0.00 0.00 0.00 78 1015.1
20260506095917 32 17 2.0 6.0 0.00 0.00 0.00 78 1015.0
20260506095826 32 10 3.0 6.0 0.00 0.00 0.00 78 1015.1
20260506095751 32 5 3.0 6.0 0.00 0.00 0.00 79 1015.0
20260506095608 32 327 3.0 6.0 0.00 0.00 0.00 79 1015.0
20260506095532 32 348 4.0 6.0 0.00 0.00 0.00 79 1015.0
20260506095408 32 335 4.0 6.0 0.00 0.00 0.00 79 1015.0
20260506095313 32 5 3.0 6.0 0.00 0.00 0.00 79 1015.1
20260506095217 32 306 2.0 6.0 0.00 0.00 0.00 79 1015.1
20260506095124 32 306 2.0 6.0 0.00 0.00 0.00 80 1015.1
20260506095009 32 332 2.0 6.0 0.00 0.00 0.00 80 1015.0
20260506094913 32 9 3.0 6.0 0.00 0.00 0.00 80 1015.1
20260506094818 32 5 3.0 6.0 0.00 0.00 0.00 80 1015.1
20260506094721 32 5 3.0 4.0 0.00 0.00 0.00 80 1015.1
20260506094610 31 355 3.0 4.0 0.00 0.00 0.00 81 1015.1
20260506094514 31 336 2.0 4.0 0.00 0.00 0.00 81 1015.2
20260506094419 31 355 2.0 4.0 0.00 0.00 0.00 81 1015.1
20260506094323 31 340 2.0 4.0 0.00 0.00 0.00 81 1015.1
20260506094208 31 5 3.0 5.0 0.00 0.00 0.00 82 1015.2
20260506094112 31 360 3.0 5.0 0.00 0.00 0.00 82 1015.1
20260506094021 31 355 2.0 5.0 0.00 0.00 0.00 82 1015.1
20260506093905 31 315 2.0 8.0 0.00 0.00 0.00 83 1015.1
20260506093810 31 331 2.0 8.0 0.00 0.00 0.00 83 1015.1
20260506093714 31 335 2.0 8.0 0.00 0.00 0.00 83 1015.2
20260506093639 31 328 2.0 8.0 0.00 0.00 0.00 84 1015.1
20260506093519 31 329 3.0 8.0 0.00 0.00 0.00 84 1015.1
20260506093408 31 321 3.0 8.0 0.00 0.00 0.00 84 1015.2
20260506093312 31 323 3.0 8.0 0.00 0.00 0.00 84 1015.1
20260506093236 30 311 3.0 8.0 0.00 0.00 0.00 85 1015.1
20260506093139 30 346 3.0 8.0 0.00 0.00 0.00 85 1015.2
20260506093022 30 335 2.0 5.0 0.00 0.00 0.00 85 1015.2
20260506092927 30 351 2.0 5.0 0.00 0.00 0.00 85 1015.1
20260506092811 30 355 3.0 5.0 0.00 0.00 0.00 86 1015.2
20260506092715 30 351 3.0 5.0 0.00 0.00 0.00 86 1015.1
20260506092624 30 340 3.0 5.0 0.00 0.00 0.00 86 1015.1
20260506092529 29 343 2.0 5.0 0.00 0.00 0.00 86 1015.2
20260506092412 29 9 3.0 5.0 0.00 0.00 0.00 87 1015.2
20260506092318 29 329 3.0 5.0 0.00 0.00 0.00 87 1015.2
20260506092242 29 360 3.0 5.0 0.00 0.00 0.00 87 1015.2
20260506092145 29 330 3.0 5.0 0.00 0.00 0.00 87 1015.2
20260506092028 29 316 3.0 4.0 0.00 0.00 0.00 87 1015.1
20260506091916 29 311 3.0 4.0 0.00 0.00 0.00 87 1015.1
20260506091820 28 297 3.0 4.0 0.00 0.00 0.00 87 1015.1
20260506091724 28 306 3.0 4.0 0.00 0.00 0.00 87 1015.2
20260506091628 28 301 3.0 4.0 0.00 0.00 0.00 87 1015.1
20260506091532 28 301 3.0 4.0 0.00 0.00 0.00 87 1015.1
20260506091412 28 306 3.0 4.0 0.00 0.00 0.00 87 1015.2
20260506091314 28 310 2.0 4.0 0.00 0.00 0.00 87 1015.1
20260506091220 28 320 2.0 4.0 0.00 0.00 0.00 87 1015.1
20260506091122 28 321 2.0 4.0 0.00 0.00 0.00 87 1015.1
20260506091043 28 313 2.0 4.0 0.00 0.00 0.00 87 1015.1
20260506090944 27 313 2.0 4.0 0.00 0.00 0.00 87 1015.0
20260506090824 27 313 2.0 4.0 0.00 0.00 0.00 86 1015.0
20260506090724 27 302 2.0 4.0 0.00 0.00 0.00 86 1015.1
20260506090625 27 302 2.0 3.0 0.00 0.00 0.00 86 1015.0
20260506090511 27 302 2.0 3.0 0.00 0.00 0.00 86 1014.9
20260506090412 27 302 2.0 3.0 0.00 0.00 0.00 86 1015.0
20260506090314 27 303 2.0 3.0 0.00 0.00 0.00 87 1014.9
20260506090216 27 302 2.0 3.0 0.00 0.00 0.00 87 1014.9
20260506090118 27 321 1.0 2.0 0.00 0.00 0.00 87 1014.9
20260506090020 27 344 1.0 2.0 0.00 0.00 0.00 87 1014.9
20260506085921 27 344 1.0 2.0 0.00 0.00 0.00 87 1014.9
20260506085826 27 344 1.0 2.0 0.00 0.00 0.00 87 1014.9
20260506085726 27 344 1.0 2.0 0.00 0.00 0.00 87 1014.9
20260506085647 27 344 0.0 2.0 0.00 0.00 0.00 87 1014.9
20260506085527 27 344 0.0 2.0 0.00 0.00 0.00 87 1014.9
20260506085428 27 344 0.0 3.0 0.00 0.00 0.00 87 1014.8
20260506085309 27 343 1.0 4.0 0.00 0.00 0.00 87 1014.9
20260506085213 27 343 1.0 4.0 0.00 0.00 0.00 87 1014.8
20260506085115 27 343 1.0 4.0 0.00 0.00 0.00 87 1014.9
20260506085017 27 344 1.0 4.0 0.00 0.00 0.00 87 1014.8
20260506084918 27 344 1.0 4.0 0.00 0.00 0.00 87 1014.7
20260506084819 27 344 1.0 4.0 0.00 0.00 0.00 87 1014.8
20260506084741 27 344 1.0 4.0 0.00 0.00 0.00 87 1014.8
20260506084622 27 344 1.0 4.0 0.00 0.00 0.00 87 1014.8
20260506084527 27 341 2.0 4.0 0.00 0.00 0.00 87 1014.8
20260506084430 27 299 1.0 3.0 0.00 0.00 0.00 87 1014.8
20260506084309 27 299 1.0 3.0 0.00 0.00 0.00 87 1014.8
20260506084211 27 299 1.0 3.0 0.00 0.00 0.00 87 1014.8
20260506084112 27 299 2.0 3.0 0.00 0.00 0.00 87 1014.7
20260506084013 27 299 2.0 3.0 0.00 0.00 0.00 87 1014.7
20260506083914 27 299 2.0 3.0 0.00 0.00 0.00 87 1014.8
20260506083819 27 299 2.0 3.0 0.00 0.00 0.00 87 1014.8
20260506083722 27 298 2.0 3.0 0.00 0.00 0.00 87 1014.8
20260506083624 27 298 2.0 3.0 0.00 0.00 0.00 87 1014.7
20260506083525 27 298 2.0 3.0 0.00 0.00 0.00 87 1014.8
20260506083408 27 298 2.0 3.0 0.00 0.00 0.00 87 1014.8
20260506083310 27 298 2.0 3.0 0.00 0.00 0.00 87 1014.8
20260506083215 27 297 2.0 3.0 0.00 0.00 0.00 87 1014.8
20260506083117 27 297 2.0 3.0 0.00 0.00 0.00 87 1014.8
20260506083020 27 297 2.0 3.0 0.00 0.00 0.00 87 1014.8
20260506082922 27 297 2.0 4.0 0.00 0.00 0.00 87 1014.8
20260506082824 27 297 2.0 4.0 0.00 0.00 0.00 87 1014.8
20260506082725 27 297 2.0 4.0 0.00 0.00 0.00 87 1014.8
20260506082610 27 297 2.0 4.0 0.00 0.00 0.00 86 1014.8
20260506082511 27 298 2.0 4.0 0.00 0.00 0.00 86 1014.9
20260506082432 27 298 2.0 4.0 0.00 0.00 0.00 86 1014.9
20260506082313 27 298 3.0 4.0 0.00 0.00 0.00 86 1014.9
20260506082233 27 298 2.0 4.0 0.00 0.00 0.00 86 1014.9
20260506082154 27 300 3.0 4.0 0.00 0.00 0.00 86 1014.9
20260506082009 27 300 2.0 4.0 0.00 0.00 0.00 86 1014.9
20260506081913 27 289 2.0 3.0 0.00 0.00 0.00 86 1014.9
20260506081813 27 289 2.0 3.0 0.00 0.00 0.00 86 1014.8
20260506081734 27 289 1.0 3.0 0.00 0.00 0.00 86 1014.9
20260506081634 27 289 1.0 3.0 0.00 0.00 0.00 86 1014.9
20260506081514 27 289 2.0 3.0 0.00 0.00 0.00 86 1014.9
20260506081415 27 289 2.0 3.0 0.00 0.00 0.00 86 1014.8
20260506081316 27 289 2.0 3.0 0.00 0.00 0.00 86 1014.8
20260506081216 27 26 2.0 2.0 0.00 0.00 0.00 86 1014.9
20260506081120 27 26 2.0 2.0 0.00 0.00 0.00 86 1014.8
20260506081042 27 26 2.0 2.0 0.00 0.00 0.00 85 1014.9
20260506080941 27 26 1.0 2.0 0.00 0.00 0.00 85 1014.9
20260506080821 27 26 1.0 1.0 0.00 0.00 0.00 85 1014.9
20260506080721 27 26 1.0 1.0 0.00 0.00 0.00 85 1014.9
20260506080621 27 26 0.0 1.0 0.00 0.00 0.00 85 1014.9
20260506080542 27 26 0.0 0.0 0.00 0.00 0.00 85 1014.8
20260506080420 27 26 0.0 0.0 0.00 0.00 0.00 85 1014.8
20260506080324 27 26 0.0 0.0 0.00 0.00 0.00 85 1014.8
20260506080244 27 26 0.0 0.0 0.00 0.00 0.00 85 1014.8
20260506080124 28 26 0.0 0.0 0.00 0.00 0.00 85 1014.8
20260506073515 28 26 0.0 1.0 0.00 0.00 0.00 84 1014.6
20260506073420 28 26 0.0 1.0 0.00 0.00 0.00 84 1014.7
20260506073321 28 26 0.0 1.0 0.00 0.00 0.00 84 1014.7
20260506073222 28 26 0.0 1.0 0.00 0.00 0.00 84 1014.7
20260506073122 28 26 0.0 1.0 0.00 0.00 0.00 84 1014.6
20260506073023 29 26 0.0 1.0 0.00 0.00 0.00 84 1014.7
20260506072924 29 26 0.0 1.0 0.00 0.00 0.00 84 1014.7
20260506072809 29 26 0.0 2.0 0.00 0.00 0.00 84 1014.7
20260506072729 29 26 0.0 2.0 0.00 0.00 0.00 84 1014.7
20260506072613 29 26 0.0 2.0 0.00 0.00 0.00 84 1014.7
20260506072517 29 26 1.0 2.0 0.00 0.00 0.00 84 1014.7
20260506072422 29 26 1.0 2.0 0.00 0.00 0.00 84 1014.7
20260506072326 29 26 1.0 2.0 0.00 0.00 0.00 84 1014.7
20260506072208 29 26 1.0 2.0 0.00 0.00 0.00 84 1014.7
20260506072116 29 26 1.0 2.0 0.00 0.00 0.00 84 1014.8
20260506072020 29 26 1.0 2.0 0.00 0.00 0.00 84 1014.8
20260506071924 29 26 1.0 2.0 0.00 0.00 0.00 84 1014.7
20260506071828 29 26 1.0 2.0 0.00 0.00 0.00 84 1014.7
20260506071705 29 26 1.0 2.0 0.00 0.00 0.00 84 1014.7
20260506071609 29 26 1.0 2.0 0.00 0.00 0.00 84 1014.7
20260506071532 29 26 1.0 2.0 0.00 0.00 0.00 84 1014.7
20260506071419 29 26 1.0 2.0 0.00 0.00 0.00 84 1014.7
20260506071322 29 26 1.0 2.0 0.00 0.00 0.00 84 1014.7
20260506071207 29 26 2.0 3.0 0.00 0.00 0.00 84 1014.7
20260506071131 29 26 2.0 3.0 0.00 0.00 0.00 84 1014.7
20260506071007 30 26 1.0 3.0 0.00 0.00 0.00 84 1014.7
20260506070911 30 26 1.0 3.0 0.00 0.00 0.00 84 1014.7
20260506070839 30 26 2.0 3.0 0.00 0.00 0.00 84 1014.7
20260506070742 30 26 2.0 3.0 0.00 0.00 0.00 84 1014.7
20260506070624 30 26 2.0 3.0 0.00 0.00 0.00 84 1014.7
20260506070508 30 26 2.0 3.0 0.00 0.00 0.00 83 1014.7
20260506070412 30 26 2.0 3.0 0.00 0.00 0.00 83 1014.7
20260506070315 30 27 2.0 2.0 0.00 0.00 0.00 83 1014.8
20260506070218 30 27 2.0 2.0 0.00 0.00 0.00 83 1014.7
20260506070106 30 27 1.0 2.0 0.00 0.00 0.00 83 1014.7
20260506062510 31 27 0.0 1.0 0.00 0.00 0.00 77 1014.8
20260506062415 31 27 0.0 1.0 0.00 0.00 0.00 77 1014.8
20260506062320 31 27 0.0 1.0 0.00 0.00 0.00 76 1014.8
20260506062221 31 27 0.0 1.0 0.00 0.00 0.00 76 1014.8
20260506062126 31 27 1.0 1.0 0.00 0.00 0.00 76 1014.9
20260506062027 31 27 1.0 1.0 0.00 0.00 0.00 76 1014.8
20260506061909 31 27 0.0 1.0 0.00 0.00 0.00 76 1014.8
20260506061812 31 27 0.0 1.0 0.00 0.00 0.00 75 1014.7
20260506061713 31 27 0.0 1.0 0.00 0.00 0.00 75 1014.9
20260506061615 32 27 0.0 1.0 0.00 0.00 0.00 75 1014.8
20260506061520 32 27 0.0 1.0 0.00 0.00 0.00 75 1014.8
20260506061424 32 27 0.0 1.0 0.00 0.00 0.00 75 1014.9
20260506061328 32 27 1.0 1.0 0.00 0.00 0.00 75 1014.8
20260506061211 32 27 1.0 2.0 0.00 0.00 0.00 75 1014.8
20260506061135 32 27 1.0 2.0 0.00 0.00 0.00 75 1014.8
20260506061037 32 27 1.0 2.0 0.00 0.00 0.00 75 1014.9
20260506060920 32 27 1.0 2.0 0.00 0.00 0.00 75 1014.8
20260506060810 32 27 1.0 2.0 0.00 0.00 0.00 75 1014.8
20260506060734 32 27 1.0 2.0 0.00 0.00 0.00 75 1014.8
20260506060619 32 27 1.0 2.0 0.00 0.00 0.00 74 1014.8
20260506060544 33 27 1.0 2.0 0.00 0.00 0.00 75 1014.8
20260506060408 33 27 1.0 2.0 0.00 0.00 0.00 74 1014.8
20260506060311 33 27 1.0 1.0 0.00 0.00 0.00 74 1014.8
20260506060215 33 27 1.0 1.0 0.00 0.00 0.00 74 1014.8
20260506060105 33 27 1.0 1.0 0.00 0.00 0.00 73 1014.7
20260506051408 36 20 2.0 4.0 0.00 0.00 0.00 67 1014.3
20260506051311 36 17 2.0 4.0 0.00 0.00 0.00 67 1014.3
20260506051233 36 17 2.0 4.0 0.00 0.00 0.00 67 1014.3
20260506051115 36 19 2.0 4.0 0.00 0.00 0.00 67 1014.2
20260506051022 36 28 2.0 5.0 0.00 0.00 0.00 67 1014.3
20260506050926 36 29 2.0 5.0 0.00 0.00 0.00 67 1014.3
20260506050829 36 23 3.0 5.0 0.00 0.00 0.00 67 1014.3
20260506050711 36 22 3.0 5.0 0.00 0.00 0.00 66 1014.2
20260506050617 36 17 2.0 5.0 0.00 0.00 0.00 67 1014.2
20260506050519 36 13 2.0 5.0 0.00 0.00 0.00 67 1014.1
20260506050407 36 16 2.0 5.0 0.00 0.00 0.00 67 1014.1
20260506050332 36 13 3.0 5.0 0.00 0.00 0.00 66 1014.1
20260506050214 36 17 3.0 5.0 0.00 0.00 0.00 66 1014.0
20260506050118 36 18 2.0 4.0 0.00 0.00 0.00 66 1014.1
20260506045114 37 24 2.0 4.0 0.00 0.00 0.00 66 1014.1
20260506045017 37 22 2.0 4.0 0.00 0.00 0.00 66 1014.0
20260506044905 37 22 2.0 4.0 0.00 0.00 0.00 66 1014.1
20260506044808 37 26 2.0 4.0 0.00 0.00 0.00 66 1014.0
20260506044711 37 27 2.0 4.0 0.00 0.00 0.00 66 1014.1
20260506044615 37 27 2.0 4.0 0.00 0.00 0.00 66 1014.0
20260506044518 37 27 2.0 4.0 0.00 0.00 0.00 65 1014.0
20260506044420 37 27 2.0 4.0 0.00 0.00 0.00 65 1014.0
20260506044307 37 28 2.0 4.0 0.00 0.00 0.00 65 1014.0
20260506044231 37 28 2.0 4.0 0.00 0.00 0.00 65 1014.0
20260506044106 37 28 2.0 4.0 0.00 0.00 0.00 65 1014.0
20260506044029 37 30 2.0 4.0 0.00 0.00 0.00 64 1014.0
20260506043931 37 28 2.0 4.0 0.00 0.00 0.00 64 1014.0
20260506043813 37 22 1.0 5.0 0.00 0.00 0.00 64 1014.0
20260506043716 37 22 2.0 5.0 0.00 0.00 0.00 64 1014.0
20260506043623 37 22 2.0 5.0 0.00 0.00 0.00 64 1014.0
20260506043527 37 22 2.0 5.0 0.00 0.00 0.00 64 1014.0
20260506043429 37 30 2.0 5.0 0.00 0.00 0.00 64 1014.1
20260506043312 37 30 2.0 5.0 0.00 0.00 0.00 64 1014.0
20260506043235 37 32 3.0 5.0 0.00 0.00 0.00 64 1014.0
20260506043117 38 34 3.0 5.0 0.00 0.00 0.00 64 1014.0
20260506043041 38 14 3.0 5.0 0.00 0.00 0.00 64 1014.0
20260506042907 38 19 3.0 5.0 0.00 0.00 0.00 64 1014.1
20260506042830 38 5 3.0 5.0 0.00 0.00 0.00 64 1014.0
20260506042706 38 30 2.0 6.0 0.00 0.00 0.00 64 1014.0
20260506042610 38 32 2.0 6.0 0.00 0.00 0.00 64 1014.0
20260506042511 38 38 2.0 6.0 0.00 0.00 0.00 64 1014.1
20260506042414 38 19 2.0 6.0 0.00 0.00 0.00 64 1014.1
20260506042338 38 35 2.0 6.0 0.00 0.00 0.00 64 1014.0
20260506042240 38 36 3.0 6.0 0.00 0.00 0.00 64 1013.9
20260506042126 38 13 3.0 6.0 0.00 0.00 0.00 63 1014.0
20260506042027 38 19 3.0 6.0 0.00 0.00 0.00 63 1014.1
20260506041908 38 317 4.0 6.0 0.00 0.00 0.00 63 1014.0
20260506041811 38 12 3.0 7.0 0.00 0.00 0.00 63 1014.1
20260506041715 38 15 3.0 7.0 0.00 0.00 0.00 62 1014.0
20260506041618 38 10 3.0 6.0 0.00 0.00 0.00 62 1014.0
20260506041505 38 9 3.0 7.0 0.00 0.00 0.00 62 1014.0
20260506041407 38 36 3.0 5.0 0.00 0.00 0.00 62 1014.0
20260506041331 38 23 3.0 5.0 0.00 0.00 0.00 62 1014.0
20260506041212 38 31 3.0 5.0 0.00 0.00 0.00 62 1014.0
20260506041115 38 46 3.0 5.0 0.00 0.00 0.00 61 1014.0
20260506041020 38 47 3.0 5.0 0.00 0.00 0.00 62 1013.9
20260506040905 38 49 4.0 5.0 0.00 0.00 0.00 62 1014.0
20260506040809 39 30 3.0 5.0 0.00 0.00 0.00 61 1014.0
20260506040710 39 40 3.0 5.0 0.00 0.00 0.00 61 1013.9
20260506040613 39 38 3.0 5.0 0.00 0.00 0.00 61 1013.9
20260506040517 39 40 3.0 5.0 0.00 0.00 0.00 61 1013.9
20260506040419 39 56 3.0 5.0 0.00 0.00 0.00 61 1013.9
20260506040322 39 40 3.0 5.0 0.00 0.00 0.00 60 1013.9
20260506040251 39 42 3.0 5.0 0.00 0.00 0.00 60 1013.9
20260506040106 39 22 3.0 6.0 0.00 0.00 0.00 60 1013.9
20260506040009 39 17 3.0 6.0 0.00 0.00 0.00 60 1013.8
20260506035913 39 39 2.0 6.0 0.00 0.00 0.00 61 1013.9
20260506035816 39 5 2.0 6.0 0.00 0.00 0.00 60 1013.9
20260506035718 39 36 2.0 6.0 0.00 0.00 0.00 60 1014.0
20260506035626 39 14 3.0 6.0 0.00 0.00 0.00 60 1013.9
20260506035508 39 5 4.0 6.0 0.00 0.00 0.00 60 1013.9
20260506035413 39 24 4.0 6.0 0.00 0.00 0.00 60 1013.9
20260506035315 39 348 3.0 6.0 0.00 0.00 0.00 60 1013.8
20260506035216 39 15 2.0 5.0 0.00 0.00 0.00 60 1013.8
20260506035119 39 18 2.0 8.0 0.00 0.00 0.00 60 1013.8
20260506035005 39 13 3.0 8.0 0.00 0.00 0.00 60 1013.8
20260506034930 39 13 3.0 8.0 0.00 0.00 0.00 60 1013.8
20260506034805 40 28 3.0 8.0 0.00 0.00 0.00 60 1013.8
20260506034731 40 355 3.0 8.0 0.00 0.00 0.00 60 1013.7
20260506034607 40 333 3.0 8.0 0.00 0.00 0.00 60 1013.8
20260506034511 40 342 3.0 8.0 0.00 0.00 0.00 60 1013.8
20260506034435 40 5 4.0 8.0 0.00 0.00 0.00 60 1013.7
20260506034321 40 14 5.0 8.0 0.00 0.00 0.00 60 1013.7
20260506034222 40 10 4.0 8.0 0.00 0.00 0.00 60 1013.7
20260506034142 40 355 3.0 8.0 0.00 0.00 0.00 60 1013.7
20260506034041 40 5 4.0 8.0 0.00 0.00 0.00 59 1013.6
20260506033923 40 9 4.0 8.0 0.00 0.00 0.00 60 1013.7
20260506033845 40 355 3.0 8.0 0.00 0.00 0.00 60 1013.7
20260506033744 40 17 3.0 8.0 0.00 0.00 0.00 59 1013.6
20260506033607 40 5 4.0 9.0 0.00 0.00 0.00 59 1013.6
20260506033513 40 360 5.0 9.0 0.00 0.00 0.00 59 1013.6
20260506033433 40 5 4.0 10.0 0.00 0.00 0.00 59 1013.5
20260506033312 40 5 3.0 10.0 0.00 0.00 0.00 59 1013.6
20260506033213 40 5 3.0 10.0 0.00 0.00 0.00 59 1013.5
20260506033113 40 19 3.0 10.0 0.00 0.00 0.00 59 1013.6
20260506033012 40 12 4.0 10.0 0.00 0.00 0.00 58 1013.6
20260506032933 40 5 4.0 10.0 0.00 0.00 0.00 59 1013.5
20260506032812 40 15 4.0 10.0 0.00 0.00 0.00 58 1013.5
20260506032718 40 22 5.0 10.0 0.00 0.00 0.00 58 1013.5
20260506032642 40 13 5.0 10.0 0.00 0.00 0.00 58 1013.5
20260506032505 40 9 4.0 9.0 0.00 0.00 0.00 58 1013.5
20260506032408 40 30 4.0 9.0 0.00 0.00 0.00 58 1013.5
20260506032311 40 344 5.0 10.0 0.00 0.00 0.00 58 1013.7
20260506032212 41 14 5.0 10.0 0.00 0.00 0.00 58 1013.6
20260506032115 41 11 5.0 10.0 0.00 0.00 0.00 58 1013.6
20260506032033 41 355 4.0 10.0 0.00 0.00 0.00 58 1013.5
20260506031935 41 351 4.0 10.0 0.00 0.00 0.00 58 1013.5
20260506031807 41 5 4.0 10.0 0.00 0.00 0.00 58 1013.6
20260506031728 41 5 4.0 10.0 0.00 0.00 0.00 58 1013.5
20260506031649 41 355 5.0 10.0 0.00 0.00 0.00 57 1013.5
20260506031550 41 18 6.0 10.0 0.00 0.00 0.00 57 1013.4
20260506031404 41 346 5.0 10.0 0.00 0.00 0.00 57 1013.5
20260506031312 41 20 5.0 10.0 0.00 0.00 0.00 57 1013.4
20260506031214 41 339 6.0 11.0 0.00 0.00 0.00 57 1013.4
20260506031114 41 5 6.0 11.0 0.00 0.00 0.00 57 1013.4
20260506031035 41 11 5.0 13.0 0.00 0.00 0.00 57 1013.4
20260506030914 41 9 5.0 13.0 0.00 0.00 0.00 57 1013.4
20260506030834 41 332 5.0 13.0 0.00 0.00 0.00 57 1013.5
20260506030754 41 5 5.0 13.0 0.00 0.00 0.00 57 1013.4
20260506030605 41 360 6.0 13.0 0.00 0.00 0.00 56 1013.5
20260506030513 41 331 6.0 13.0 0.00 0.00 0.00 56 1013.5
20260506030415 41 343 5.0 13.0 0.00 0.00 0.00 57 1013.4
20260506030316 41 12 6.0 13.0 0.00 0.00 0.00 57 1013.5
20260506030216 41 16 7.0 13.0 0.00 0.00 0.00 56 1013.5
20260506030119 41 355 6.0 12.0 0.00 0.00 0.00 56 1013.4
20260506030045 41 308 6.0 12.0 0.00 0.00 0.00 56 1013.5
20260506025910 41 355 6.0 12.0 0.00 0.00 0.00 57 1013.5
20260506025811 41 340 5.0 12.0 0.00 0.00 0.00 56 1013.4
20260506025715 41 19 6.0 12.0 0.00 0.00 0.00 56 1013.4
20260506025616 41 5 7.0 12.0 0.00 0.00 0.00 56 1013.6
20260506025515 41 5 7.0 12.0 0.00 0.00 0.00 57 1013.5
20260506025416 41 5 6.0 12.0 0.00 0.00 0.00 56 1013.5
20260506025337 42 345 8.0 12.0 0.00 0.00 0.00 56 1013.4
20260506025234 42 9 9.0 12.0 0.00 0.00 0.00 56 1013.4
20260506025117 42 5 7.0 12.0 0.00 0.00 0.00 56 1013.4
20260506025018 42 360 6.0 12.0 0.00 0.00 0.00 57 1013.4
20260506024919 42 16 7.0 13.0 0.00 0.00 0.00 57 1013.4
20260506024818 42 11 6.0 13.0 0.00 0.00 0.00 57 1013.4
20260506024719 42 355 5.0 15.0 0.00 0.00 0.00 56 1013.4
20260506024617 42 24 6.0 15.0 0.00 0.00 0.00 57 1013.4
20260506024537 42 11 7.0 15.0 0.00 0.00 0.00 57 1013.4
20260506024421 42 355 7.0 15.0 0.00 0.00 0.00 57 1013.3
20260506024322 42 22 7.0 15.0 0.00 0.00 0.00 56 1013.3
20260506024221 42 5 8.0 15.0 0.00 0.00 0.00 56 1013.4
20260506024123 42 355 10.0 15.0 0.00 0.00 0.00 57 1013.4
20260506024021 42 344 9.0 15.0 0.00 0.00 0.00 57 1013.3
20260506023922 42 343 6.0 13.0 0.00 0.00 0.00 56 1013.3
20260506023823 42 17 7.0 11.0 0.00 0.00 0.00 56 1013.2
20260506023707 42 9 8.0 11.0 0.00 0.00 0.00 56 1013.3
20260506023608 42 350 7.0 11.0 0.00 0.00 0.00 57 1013.2
20260506023510 42 5 6.0 11.0 0.00 0.00 0.00 56 1013.2
20260506023411 42 338 4.0 11.0 0.00 0.00 0.00 56 1013.2
20260506023313 42 344 4.0 11.0 0.00 0.00 0.00 57 1013.2
20260506023215 42 9 4.0 11.0 0.00 0.00 0.00 57 1013.1
20260506023122 42 13 5.0 11.0 0.00 0.00 0.00 56 1013.2
20260506023023 42 11 5.0 11.0 0.00 0.00 0.00 56 1013.1
20260506022925 42 336 6.0 11.0 0.00 0.00 0.00 56 1013.1
20260506022824 42 360 7.0 11.0 0.00 0.00 0.00 56 1013.1
20260506022725 42 15 6.0 11.0 0.00 0.00 0.00 56 1013.1
20260506022626 42 360 6.0 11.0 0.00 0.00 0.00 56 1013.1
20260506022512 42 344 6.0 11.0 0.00 0.00 0.00 57 1013.1
20260506022412 42 350 6.0 13.0 0.00 0.00 0.00 56 1013.1
20260506022312 42 330 7.0 13.0 0.00 0.00 0.00 56 1013.1
20260506022213 42 355 7.0 13.0 0.00 0.00 0.00 56 1013.1
20260506022134 42 12 7.0 13.0 0.00 0.00 0.00 56 1013.0
20260506022015 42 5 6.0 13.0 0.00 0.00 0.00 56 1013.0
20260506021918 43 26 4.0 13.0 0.00 0.00 0.00 56 1013.0
20260506021806 43 44 4.0 13.0 0.00 0.00 0.00 56 1013.0
20260506021710 43 355 6.0 13.0 0.00 0.00 0.00 56 1012.9
20260506021633 43 16 7.0 13.0 0.00 0.00 0.00 56 1012.9
20260506021515 43 351 7.0 13.0 0.00 0.00 0.00 55 1013.0
20260506021417 43 15 7.0 13.0 0.00 0.00 0.00 55 1012.8
20260506021316 43 19 7.0 13.0 0.00 0.00 0.00 55 1012.8
20260506021221 43 27 7.0 16.0 0.00 0.00 0.00 55 1012.8
20260506021119 43 14 6.0 16.0 0.00 0.00 0.00 55 1012.8
20260506021024 43 9 6.0 16.0 0.00 0.00 0.00 55 1012.7
20260506020928 43 360 8.0 16.0 0.00 0.00 0.00 55 1012.8
20260506020810 43 329 9.0 16.0 0.00 0.00 0.00 55 1012.7
20260506020714 43 360 8.0 18.0 0.00 0.00 0.00 55 1012.8
20260506020619 43 360 8.0 18.0 0.00 0.00 0.00 55 1012.7
20260506020506 43 17 9.0 19.0 0.00 0.00 0.00 55 1012.8
20260506020431 43 5 8.0 19.0 0.00 0.00 0.00 55 1012.7
20260506020306 43 33 8.0 19.0 0.00 0.00 0.00 55 1012.7
20260506020211 43 40 9.0 19.0 0.00 0.00 0.00 55 1012.6
20260506020116 43 15 11.0 19.0 0.00 0.00 0.00 55 1012.6
20260506020018 43 47 10.0 19.0 0.00 0.00 0.00 55 1012.6
20260506015906 43 346 8.0 19.0 0.00 0.00 0.00 55 1012.6
20260506015831 43 360 10.0 19.0 0.00 0.00 0.00 55 1012.7
20260506015707 43 351 11.0 19.0 0.00 0.00 0.00 55 1012.6
20260506015612 43 347 7.0 18.0 0.00 0.00 0.00 56 1012.5
20260506015536 43 14 6.0 12.0 0.00 0.00 0.00 56 1012.6
20260506015419 43 355 5.0 12.0 0.00 0.00 0.00 56 1012.5
20260506015328 43 17 5.0 9.0 0.00 0.00 0.00 57 1012.6
20260506015252 43 323 5.0 9.0 0.00 0.00 0.00 56 1012.5
20260506015108 43 16 3.0 6.0 0.00 0.00 0.00 56 1012.5
20260506015012 43 14 3.0 6.0 0.00 0.00 0.00 56 1012.4
20260506014917 43 13 3.0 6.0 0.00 0.00 0.00 55 1012.4
20260506014821 43 12 3.0 6.0 0.00 0.00 0.00 55 1012.3
20260506014710 44 10 3.0 8.0 0.00 0.00 0.00 55 1012.3
20260506014614 44 18 3.0 8.0 0.00 0.00 0.00 55 1012.3
20260506014519 44 5 4.0 8.0 0.00 0.00 0.00 55 1012.4
20260506014423 44 355 5.0 9.0 0.00 0.00 0.00 55 1012.4
20260506014327 44 11 4.0 9.0 0.00 0.00 0.00 54 1012.3
20260506014231 44 350 4.0 9.0 0.00 0.00 0.00 55 1012.4
20260506014107 44 15 3.0 9.0 0.00 0.00 0.00 54 1012.4
20260506014016 44 15 4.0 9.0 0.00 0.00 0.00 54 1012.3
20260506013939 44 12 5.0 9.0 0.00 0.00 0.00 54 1012.4
20260506013824 44 15 5.0 12.0 0.00 0.00 0.00 54 1012.3
20260506013728 44 5 5.0 12.0 0.00 0.00 0.00 54 1012.3
20260506013610 44 360 5.0 12.0 0.00 0.00 0.00 54 1012.3
20260506013535 44 20 4.0 12.0 0.00 0.00 0.00 54 1012.3
20260506013417 44 355 4.0 12.0 0.00 0.00 0.00 53 1012.2
20260506013320 44 39 4.0 12.0 0.00 0.00 0.00 53 1012.3
20260506013229 44 18 4.0 12.0 0.00 0.00 0.00 53 1012.2
20260506013105 44 47 6.0 12.0 0.00 0.00 0.00 53 1012.2
20260506013008 44 355 6.0 13.0 0.00 0.00 0.00 53 1012.2
20260506012911 45 16 4.0 13.0 0.00 0.00 0.00 53 1012.2
20260506012815 45 344 5.0 13.0 0.00 0.00 0.00 53 1012.2
20260506012738 45 52 5.0 13.0 0.00 0.00 0.00 53 1012.1
20260506012619 45 19 5.0 13.0 0.00 0.00 0.00 53 1012.2
20260506012507 45 15 5.0 13.0 0.00 0.00 0.00 52 1012.2
20260506012430 45 21 5.0 13.0 0.00 0.00 0.00 52 1012.2
20260506012308 45 40 8.0 13.0 0.00 0.00 0.00 52 1012.2
20260506012229 45 20 8.0 13.0 0.00 0.00 0.00 52 1012.1
20260506012111 45 355 6.0 13.0 0.00 0.00 0.00 52 1012.2
20260506012034 45 14 6.0 13.0 0.00 0.00 0.00 51 1012.2
20260506011936 45 33 7.0 14.0 0.00 0.00 0.00 51 1012.2
20260506011839 45 23 7.0 17.0 0.00 0.00 0.00 51 1012.1
20260506011724 45 5 6.0 18.0 0.00 0.00 0.00 51 1012.2
20260506011629 45 9 7.0 18.0 0.00 0.00 0.00 51 1012.1
20260506011510 45 17 7.0 18.0 0.00 0.00 0.00 51 1012.1
20260506011433 45 12 9.0 18.0 0.00 0.00 0.00 51 1012.1
20260506011315 46 9 9.0 18.0 0.00 0.00 0.00 51 1012.1
20260506011218 46 13 10.0 18.0 0.00 0.00 0.00 51 1012.2
20260506011105 46 23 12.0 18.0 0.00 0.00 0.00 51 1012.1
20260506011008 46 349 12.0 18.0 0.00 0.00 0.00 50 1012.0
20260506010932 46 360 12.0 18.0 0.00 0.00 0.00 50 1012.0
20260506010814 46 360 11.0 17.0 0.00 0.00 0.00 51 1012.1
20260506010717 46 355 9.0 17.0 0.00 0.00 0.00 50 1012.1
20260506010619 46 34 8.0 17.0 0.00 0.00 0.00 50 1012.0
20260506010522 46 5 8.0 17.0 0.00 0.00 0.00 50 1012.1
20260506010410 46 355 9.0 17.0 0.00 0.00 0.00 50 1012.0
20260506010313 46 5 10.0 17.0 0.00 0.00 0.00 50 1012.1
20260506010216 46 346 11.0 17.0 0.00 0.00 0.00 50 1012.0
20260506010122 46 360 11.0 17.0 0.00 0.00 0.00 50 1011.9
20260506010045 46 355 10.0 15.0 0.00 0.00 0.00 50 1012.0
20260506005927 46 331 9.0 15.0 0.00 0.00 0.00 50 1012.0
20260506005810 46 344 7.0 15.0 0.00 0.00 0.00 50 1012.0
20260506005718 46 5 8.0 15.0 0.00 0.00 0.00 50 1011.9
20260506005622 46 21 8.0 15.0 0.00 0.00 0.00 51 1011.8
20260506005507 46 348 7.0 15.0 0.00 0.00 0.00 51 1011.9
20260506005430 46 346 7.0 15.0 0.00 0.00 0.00 50 1011.9
20260506005308 46 319 9.0 15.0 0.00 0.00 0.00 50 1011.8
20260506005212 46 355 10.0 16.0 0.00 0.00 0.00 50 1011.8
20260506005119 46 355 8.0 16.0 0.00 0.00 0.00 50 1011.8
20260506005023 46 5 8.0 16.0 0.00 0.00 0.00 50 1011.8
20260506004928 46 5 7.0 16.0 0.00 0.00 0.00 50 1011.7
20260506004831 46 355 7.0 16.0 0.00 0.00 0.00 50 1011.8
20260506004708 47 37 7.0 16.0 0.00 0.00 0.00 50 1011.7
20260506004612 47 355 9.0 16.0 0.00 0.00 0.00 51 1011.8
20260506004520 47 344 9.0 16.0 0.00 0.00 0.00 50 1011.7
20260506004445 47 360 8.0 16.0 0.00 0.00 0.00 50 1011.7
20260506004328 47 44 8.0 16.0 0.00 0.00 0.00 50 1011.7
20260506004205 47 360 7.0 16.0 0.00 0.00 0.00 50 1011.7
20260506004129 47 28 7.0 16.0 0.00 0.00 0.00 50 1011.7
20260506004013 47 13 9.0 16.0 0.00 0.00 0.00 49 1011.7
20260506003917 47 355 8.0 16.0 0.00 0.00 0.00 50 1011.6
20260506003825 47 36 8.0 16.0 0.00 0.00 0.00 50 1011.6
20260506003728 47 9 7.0 12.0 0.00 0.00 0.00 49 1011.6
20260506003651 47 30 7.0 16.0 0.00 0.00 0.00 49 1011.6
20260506003505 47 360 6.0 16.0 0.00 0.00 0.00 49 1011.6
20260506003410 47 19 6.0 18.0 0.00 0.00 0.00 49 1011.6
20260506003315 47 28 6.0 18.0 0.00 0.00 0.00 50 1011.6
20260506003220 47 355 7.0 18.0 0.00 0.00 0.00 49 1011.6
20260506003128 47 360 8.0 18.0 0.00 0.00 0.00 49 1011.6
20260506003005 48 24 7.0 18.0 0.00 0.00 0.00 49 1011.6
20260506002929 48 355 8.0 18.0 0.00 0.00 0.00 48 1011.6
20260506002813 48 355 8.0 18.0 0.00 0.00 0.00 49 1011.6
20260506002716 48 355 10.0 18.0 0.00 0.00 0.00 48 1011.7
20260506002621 48 349 12.0 18.0 0.00 0.00 0.00 48 1011.6
20260506002529 48 61 11.0 15.0 0.00 0.00 0.00 48 1011.6
20260506002406 48 20 9.0 15.0 0.00 0.00 0.00 48 1011.6
20260506002330 48 346 8.0 14.0 0.00 0.00 0.00 49 1011.5
20260506002208 48 13 8.0 14.0 0.00 0.00 0.00 49 1011.5
20260506002112 48 334 9.0 14.0 0.00 0.00 0.00 49 1011.4
20260506002016 48 348 8.0 14.0 0.00 0.00 0.00 49 1011.4
20260506001925 48 34 7.0 14.0 0.00 0.00 0.00 49 1011.4
20260506001809 48 49 7.0 13.0 0.00 0.00 0.00 49 1011.4
20260506001712 48 44 7.0 13.0 0.00 0.00 0.00 48 1011.4
20260506001637 48 328 8.0 13.0 0.00 0.00 0.00 49 1011.4
20260506001519 48 15 8.0 13.0 0.00 0.00 0.00 49 1011.4
20260506001423 48 355 8.0 13.0 0.00 0.00 0.00 48 1011.4
20260506001311 48 360 7.0 13.0 0.00 0.00 0.00 48 1011.4
20260506001215 48 5 8.0 13.0 0.00 0.00 0.00 48 1011.5
20260506001120 48 10 9.0 13.0 0.00 0.00 0.00 48 1011.4
20260506001005 48 323 6.0 13.0 0.00 0.00 0.00 48 1011.4
20260506000910 48 347 5.0 13.0 0.00 0.00 0.00 49 1011.3
20260506000815 48 27 5.0 13.0 0.00 0.00 0.00 48 1011.4
20260506000722 48 355 5.0 13.0 0.00 0.00 0.00 48 1011.4
20260506000607 48 350 7.0 14.0 0.00 0.00 0.00 48 1011.3
20260506000511 48 355 8.0 14.0 0.00 0.00 0.00 47 1011.4
20260506000416 48 294 8.0 15.0 0.00 0.00 0.00 48 1011.4
20260506000320 48 5 7.0 15.0 0.00 0.00 0.00 48 1011.4
20260506000223 48 355 7.0 15.0 0.00 0.00 0.00 46 1011.3
20260506000110 49 338 9.0 15.0 0.00 0.00 0.00 47 1011.4
20260506000015 49 333 9.0 16.0 0.00 0.00 0.00 47 1011.3
20260505235939 49 9 10.0 16.0 0.00 0.00 0.00 47 1011.3
20260505235824 49 355 10.0 16.0 0.00 0.00 0.00 47 1011.3
20260505235709 49 349 10.0 16.0 0.00 0.00 0.00 46 1011.3
20260505235614 49 5 10.0 16.0 0.00 0.00 0.00 46 1011.3
20260505235520 49 329 8.0 16.0 0.00 0.00 0.00 47 1011.3
20260505235409 49 355 8.0 16.0 0.00 0.00 0.00 47 1011.3
20260505235313 49 321 11.0 16.0 0.00 0.00 0.00 47 1011.3
20260505235218 49 350 13.0 17.0 0.00 0.00 0.00 46 1011.3
20260505235122 49 355 11.0 17.0 0.00 0.00 0.00 47 1011.3
20260505235026 49 338 9.0 17.0 0.00 0.00 0.00 47 1011.3
20260505234928 49 332 10.0 17.0 0.00 0.00 0.00 46 1011.2
20260505234815 49 344 10.0 17.0 0.00 0.00 0.00 47 1011.2
20260505234717 49 9 9.0 17.0 0.00 0.00 0.00 47 1011.2
20260505234622 49 347 8.0 17.0 0.00 0.00 0.00 47 1011.2
20260505234507 49 360 10.0 17.0 0.00 0.00 0.00 45 1011.2
20260505234431 49 350 11.0 17.0 0.00 0.00 0.00 45 1011.2
20260505234307 49 349 10.0 14.0 0.00 0.00 0.00 45 1011.2
20260505234216 49 19 8.0 14.0 0.00 0.00 0.00 45 1011.2
20260505234120 49 5 7.0 13.0 0.00 0.00 0.00 45 1011.2
20260505234024 49 348 6.0 13.0 0.00 0.00 0.00 46 1011.2
20260505233908 50 360 7.0 17.0 0.00 0.00 0.00 46 1011.2
20260505233813 50 344 8.0 17.0 0.00 0.00 0.00 45 1011.1
20260505233716 50 309 8.0 17.0 0.00 0.00 0.00 45 1011.1
20260505233624 50 336 8.0 17.0 0.00 0.00 0.00 45 1011.2
20260505233526 50 317 8.0 17.0 0.00 0.00 0.00 44 1011.1
20260505233409 50 329 7.0 17.0 0.00 0.00 0.00 45 1011.1
20260505233312 50 304 9.0 17.0 0.00 0.00 0.00 44 1011.2
20260505233216 50 338 10.0 17.0 0.00 0.00 0.00 43 1011.1
20260505233118 50 333 10.0 15.0 0.00 0.00 0.00 44 1011.1
20260505233007 51 355 9.0 15.0 0.00 0.00 0.00 45 1011.1
20260505232929 51 302 9.0 20.0 0.00 0.00 0.00 45 1011.1
20260505232805 51 338 8.0 20.0 0.00 0.00 0.00 45 1011.1
20260505232709 51 306 7.0 20.0 0.00 0.00 0.00 45 1011.1
20260505232613 51 315 7.0 20.0 0.00 0.00 0.00 44 1011.1
20260505232515 51 331 8.0 20.0 0.00 0.00 0.00 43 1011.1
20260505232418 50 348 8.0 20.0 0.00 0.00 0.00 43 1011.0
20260505232326 51 349 9.0 20.0 0.00 0.00 0.00 43 1011.1
20260505232228 51 19 12.0 20.0 0.00 0.00 0.00 43 1011.1
20260505232109 51 351 12.0 20.0 0.00 0.00 0.00 43 1011.1
20260505232012 51 355 11.0 17.0 0.00 0.00 0.00 43 1011.0
20260505231916 51 343 11.0 17.0 0.00 0.00 0.00 44 1011.0
20260505231818 51 337 11.0 17.0 0.00 0.00 0.00 43 1011.0
20260505231742 51 345 9.0 14.0 0.00 0.00 0.00 43 1011.1
20260505231628 51 355 10.0 14.0 0.00 0.00 0.00 43 1011.0
20260505231506 51 327 8.0 14.0 0.00 0.00 0.00 44 1011.0
20260505231429 51 355 8.0 14.0 0.00 0.00 0.00 44 1011.0
20260505231311 51 351 9.0 14.0 0.00 0.00 0.00 44 1011.0
20260505231214 51 38 9.0 14.0 0.00 0.00 0.00 45 1011.0
20260505231117 51 10 8.0 14.0 0.00 0.00 0.00 45 1011.0
20260505231021 50 339 8.0 14.0 0.00 0.00 0.00 44 1011.0
20260505230907 50 23 8.0 15.0 0.00 0.00 0.00 45 1010.9
20260505230811 50 336 9.0 15.0 0.00 0.00 0.00 45 1011.0
20260505230713 50 312 9.0 15.0 0.00 0.00 0.00 45 1010.9
20260505230617 50 18 7.0 15.0 0.00 0.00 0.00 45 1010.9
20260505230520 50 297 5.0 15.0 0.00 0.00 0.00 46 1010.9
20260505230406 50 344 6.0 15.0 0.00 0.00 0.00 45 1011.0
20260505230330 50 355 9.0 15.0 0.00 0.00 0.00 45 1011.0
20260505230206 50 328 11.0 16.0 0.00 0.00 0.00 43 1011.1
20260505230109 50 355 10.0 16.0 0.00 0.00 0.00 43 1011.0
20260505230013 50 355 11.0 16.0 0.00 0.00 0.00 44 1011.0
20260505225936 50 5 11.0 16.0 0.00 0.00 0.00 44 1011.1
20260505225819 50 342 10.0 16.0 0.00 0.00 0.00 45 1011.0
20260505225705 50 360 9.0 16.0 0.00 0.00 0.00 45 1011.1
20260505225609 50 360 10.0 16.0 0.00 0.00 0.00 45 1011.0
20260505225511 50 328 11.0 16.0 0.00 0.00 0.00 45 1011.0
20260505225414 49 355 11.0 16.0 0.00 0.00 0.00 46 1011.1
20260505225318 49 355 11.0 15.0 0.00 0.00 0.00 47 1011.0
20260505225220 49 360 9.0 14.0 0.00 0.00 0.00 46 1010.9
20260505225128 49 332 6.0 13.0 0.00 0.00 0.00 48 1011.0
20260505225031 49 325 6.0 13.0 0.00 0.00 0.00 47 1011.1
20260505224906 48 321 7.0 13.0 0.00 0.00 0.00 47 1011.0
20260505224830 48 355 7.0 14.0 0.00 0.00 0.00 47 1011.0
20260505224711 48 355 7.0 14.0 0.00 0.00 0.00 47 1011.0
20260505224614 48 338 7.0 14.0 0.00 0.00 0.00 47 1011.0
20260505224537 48 319 6.0 14.0 0.00 0.00 0.00 47 1011.1
20260505224419 48 342 7.0 14.0 0.00 0.00 0.00 48 1010.9
20260505224327 48 342 8.0 14.0 0.00 0.00 0.00 47 1011.0
20260505224209 48 336 9.0 14.0 0.00 0.00 0.00 46 1011.0
20260505224112 48 339 10.0 14.0 0.00 0.00 0.00 46 1010.9
20260505224015 48 12 9.0 16.0 0.00 0.00 0.00 48 1011.0
20260505223939 49 328 7.0 16.0 0.00 0.00 0.00 47 1011.0
20260505223821 49 318 5.0 16.0 0.00 0.00 0.00 47 1011.1
20260505223744 48 287 6.0 16.0 0.00 0.00 0.00 47 1011.0
20260505223631 48 333 8.0 16.0 0.00 0.00 0.00 46 1010.9
20260505223507 48 10 10.0 16.0 0.00 0.00 0.00 46 1011.0
20260505223411 48 355 9.0 16.0 0.00 0.00 0.00 46 1011.0
20260505223334 48 12 10.0 16.0 0.00 0.00 0.00 47 1011.1
20260505223217 48 5 9.0 16.0 0.00 0.00 0.00 47 1011.0
20260505223119 48 329 8.0 16.0 0.00 0.00 0.00 48 1011.0
20260505223006 48 13 9.0 15.0 0.00 0.00 0.00 46 1011.0
20260505222929 48 336 9.0 15.0 0.00 0.00 0.00 46 1010.9
20260505222852 48 5 8.0 15.0 0.00 0.00 0.00 46 1011.0
20260505222707 48 343 9.0 15.0 0.00 0.00 0.00 46 1011.0
20260505222630 48 346 10.0 15.0 0.00 0.00 0.00 46 1011.0
20260505222506 48 342 7.0 15.0 0.00 0.00 0.00 48 1011.0
20260505222409 48 336 8.0 15.0 0.00 0.00 0.00 46 1011.0
20260505222316 48 327 10.0 15.0 0.00 0.00 0.00 46 1011.0
20260505222219 48 336 10.0 16.0 0.00 0.00 0.00 46 1011.0
20260505222122 48 342 10.0 16.0 0.00 0.00 0.00 46 1010.9
20260505222006 48 350 10.0 16.0 0.00 0.00 0.00 46 1011.0
20260505221929 48 336 10.0 16.0 0.00 0.00 0.00 46 1011.1
20260505221806 48 5 9.0 16.0 0.00 0.00 0.00 47 1011.0
20260505221713 48 5 8.0 16.0 0.00 0.00 0.00 47 1011.0
20260505221616 48 5 8.0 16.0 0.00 0.00 0.00 47 1011.1
20260505221520 48 15 9.0 17.0 0.00 0.00 0.00 47 1011.1
20260505221445 48 294 10.0 17.0 0.00 0.00 0.00 46 1011.1
20260505221326 48 311 8.0 17.0 0.00 0.00 0.00 47 1011.1
20260505221209 48 343 9.0 17.0 0.00 0.00 0.00 47 1011.1
20260505221113 48 343 10.0 17.0 0.00 0.00 0.00 46 1011.1
20260505221020 48 323 9.0 17.0 0.00 0.00 0.00 46 1011.0
20260505220923 48 328 7.0 17.0 0.00 0.00 0.00 48 1011.1
20260505220826 48 326 9.0 17.0 0.00 0.00 0.00 46 1011.0
20260505220708 48 327 11.0 17.0 0.00 0.00 0.00 46 1011.1
20260505220611 48 338 10.0 19.0 0.00 0.00 0.00 47 1011.0